Time,TemperatureF,DewpointF,PressureIn,WindDirection,WindDirectionDegrees,WindSpeedMPH,WindSpeedGustMPH,Humidity,HourlyPrecipIn,Conditions,Clouds,dailyrainin,SolarRadiationWatts/m^2,SoftwareType,DateUTC
2013-03-19 00:00:00,33.5,33.0,29.95,West,275,0.0,1.0,98,0.00,,SKC,0.25,0.00,VWS V14.01,2013-03-19 04:00:00,
2013-03-19 00:01:00,33.5,33.0,29.95,West,275,0.0,0.0,98,0.00,,SKC,0.00,0.00,VWS V14.01,2013-03-19 04:01:00,
2013-03-19 00:05:00,33.5,33.0,29.95,West,275,0.0,0.0,98,0.00,,SKC,0.00,0.00,VWS V14.01,2013-03-19 04:05:00,
2013-03-19 00:07:00,33.6,33.1,29.95,West,275,0.0,0.0,98,0.00,,SKC,0.00,0.00,VWS V14.01,2013-03-19 04:07:00,
2013-03-19 00:10:00,33.6,33.1,29.95,West,275,0.0,0.0,98,0.00,,SKC,0.00,0.00,VWS V14.01,2013-03-19 04:10:00,
2013-03-19 00:12:00,33.6,33.1,29.95,West,275,0.0,0.0,98,0.00,,SKC,0.00,0.00,VWS V14.01,2013-03-19 04:12:00,
2013-03-19 00:15:00,33.6,33.1,29.95,West,275,0.0,0.0,98,0.00,,SKC,0.00,0.00,VWS V14.01,2013-03-19 04:15:00,
2013-03-19 00:16:00,33.6,33.1,29.95,West,275,0.0,0.0,98,0.00,,SKC,0.00,0.00,VWS V14.01,2013-03-19 04:16:00,
2013-03-19 00:17:00,33.6,33.1,29.95,West,275,0.0,0.0,98,0.00,,SKC,0.00,0.00,VWS V14.01,2013-03-19 04:17:00,
2013-03-19 00:20:00,33.7,33.2,29.94,West,275,0.0,0.0,98,0.00,,SKC,0.00,0.00,VWS V14.01,2013-03-19 04:20:00,
2013-03-19 00:21:00,33.6,33.1,29.94,West,275,0.0,0.0,98,0.00,,SKC,0.00,0.00,VWS V14.01,2013-03-19 04:21:00,
2013-03-19 00:22:00,33.6,32.8,29.94,West,275,0.0,0.0,97,0.00,,SKC,0.00,0.00,VWS V14.01,2013-03-19 04:22:00,
2013-03-19 00:25:00,33.6,33.1,29.94,West,275,0.0,0.0,98,0.00,,SKC,0.00,0.00,VWS V14.01,2013-03-19 04:25:00,
2013-03-19 00:26:00,33.7,33.2,29.94,West,275,0.0,0.0,98,0.00,,SKC,0.00,0.00,VWS V14.01,2013-03-19 04:26:00,
2013-03-19 00:27:00,33.7,33.2,29.94,West,275,0.0,0.0,98,0.00,,SKC,0.00,0.00,VWS V14.01,2013-03-19 04:27:00,
2013-03-19 00:30:00,33.6,32.8,29.94,West,275,0.0,0.0,97,0.00,,SKC,0.00,0.00,VWS V14.01,2013-03-19 04:30:00,
2013-03-19 00:31:00,33.6,32.8,29.94,West,275,0.0,0.0,97,0.00,,SKC,0.00,0.00,VWS V14.01,2013-03-19 04:31:00,
2013-03-19 00:32:00,33.6,32.8,29.93,West,275,0.0,0.0,97,0.00,,SKC,0.00,0.00,VWS V14.01,2013-03-19 04:32:00,
2013-03-19 00:36:00,33.6,33.1,29.94,West,275,0.0,0.0,98,0.00,,SKC,0.00,0.00,VWS V14.01,2013-03-19 04:36:00,
2013-03-19 00:37:00,33.7,33.2,29.93,West,275,0.0,0.0,98,0.00,,SKC,0.00,0.00,VWS V14.01,2013-03-19 04:37:00,
2013-03-19 00:41:00,33.6,33.1,29.94,West,275,1.0,1.0,98,0.00,,SKC,0.00,0.00,VWS V14.01,2013-03-19 04:41:00,
2013-03-19 00:42:00,33.6,33.1,29.94,West,275,0.0,1.0,98,0.00,,SKC,0.00,0.00,VWS V14.01,2013-03-19 04:42:00,
2013-03-19 00:43:00,33.6,33.1,29.94,West,275,0.0,1.0,98,0.00,,SKC,0.00,0.00,VWS V14.01,2013-03-19 04:43:00,
2013-03-19 00:46:00,33.5,33.0,29.94,West,275,0.0,2.0,98,0.00,,SKC,0.00,0.00,VWS V14.01,2013-03-19 04:46:00,
2013-03-19 00:47:00,33.5,33.0,29.94,West,275,1.0,2.0,98,0.00,,SKC,0.00,0.00,VWS V14.01,2013-03-19 04:47:00,
2013-03-19 00:49:00,33.5,33.0,29.94,WSW,246,2.0,4.0,98,0.00,,SKC,0.00,0.00,VWS V14.01,2013-03-19 04:49:00,
2013-03-19 00:51:00,33.5,33.0,29.93,SW,220,0.0,4.0,98,0.00,,SKC,0.00,0.00,VWS V14.01,2013-03-19 04:51:00,
2013-03-19 00:52:00,33.5,33.0,29.93,SW,220,2.0,4.0,98,0.00,,SKC,0.00,0.00,VWS V14.01,2013-03-19 04:52:00,
2013-03-19 00:54:00,33.5,33.0,29.93,SW,220,0.0,4.0,98,0.00,,SKC,0.00,0.00,VWS V14.01,2013-03-19 04:54:00,
2013-03-19 00:56:00,33.5,33.0,29.93,SW,220,1.0,4.0,98,0.00,,SKC,0.00,0.00,VWS V14.01,2013-03-19 04:56:00,
2013-03-19 00:57:00,33.5,33.0,29.93,SW,220,1.0,4.0,98,0.00,,SKC,0.00,0.00,VWS V14.01,2013-03-19 04:57:00,
2013-03-19 00:58:00,33.5,33.0,29.93,SW,220,0.0,4.0,98,0.00,,SKC,0.00,0.00,VWS V14.01,2013-03-19 04:58:00,
2013-03-19 00:59:00,33.5,33.0,29.93,SW,220,1.0,4.0,98,0.00,,SKC,0.00,0.00,VWS V14.01,2013-03-19 04:59:00,
2013-03-19 01:02:00,33.5,33.0,29.93,SW,220,0.0,0.0,98,0.00,,SKC,0.00,0.00,VWS V14.01,2013-03-19 05:02:00,
2013-03-19 01:03:00,33.6,33.1,29.93,SW,220,2.0,2.0,98,0.00,,SKC,0.00,0.00,VWS V14.01,2013-03-19 05:03:00,
2013-03-19 01:04:00,33.6,32.8,29.93,SW,220,0.0,2.0,97,0.00,,SKC,0.00,0.00,VWS V14.01,2013-03-19 05:04:00,
2013-03-19 01:07:00,33.6,32.8,29.92,SW,220,0.0,2.0,97,0.00,,SKC,0.00,0.00,VWS V14.01,2013-03-19 05:07:00,
2013-03-19 01:08:00,33.6,32.8,29.92,SW,220,0.0,2.0,97,0.00,,SKC,0.00,0.00,VWS V14.01,2013-03-19 05:08:00,
2013-03-19 01:10:00,33.6,33.1,29.92,SW,220,1.0,2.0,98,0.00,,SKC,0.00,0.00,VWS V14.01,2013-03-19 05:10:00,
2013-03-19 01:12:00,33.6,33.1,29.92,SW,220,1.0,2.0,98,0.00,,SKC,0.00,0.00,VWS V14.01,2013-03-19 05:12:00,
2013-03-19 01:13:00,33.6,33.1,29.92,SW,220,0.0,2.0,98,0.00,,SKC,0.00,0.00,VWS V14.01,2013-03-19 05:13:00,
2013-03-19 01:15:00,33.6,33.1,29.92,SW,220,1.0,2.0,98,0.00,,SKC,0.00,0.00,VWS V14.01,2013-03-19 05:15:00,
2013-03-19 01:17:00,33.6,33.1,29.92,SW,220,2.0,3.0,98,0.00,,SKC,0.00,0.00,VWS V14.01,2013-03-19 05:17:00,
2013-03-19 01:18:00,33.6,32.8,29.92,SW,220,3.0,3.0,97,0.00,,SKC,0.00,0.00,VWS V14.01,2013-03-19 05:18:00,
2013-03-19 01:20:00,33.6,32.8,29.92,SW,220,0.0,4.0,97,0.00,,SKC,0.00,0.00,VWS V14.01,2013-03-19 05:20:00,
2013-03-19 01:23:00,33.6,32.8,29.92,SW,220,0.0,4.0,97,0.00,,SKC,0.00,0.00,VWS V14.01,2013-03-19 05:23:00,
2013-03-19 01:26:00,33.7,32.9,29.91,SW,220,0.0,4.0,97,0.00,,SKC,0.00,0.00,VWS V14.01,2013-03-19 05:26:00,
2013-03-19 01:28:00,33.7,33.2,29.91,SW,219,0.0,4.0,98,0.00,,SKC,0.00,0.00,VWS V14.01,2013-03-19 05:28:00,
2013-03-19 01:29:00,33.7,33.2,29.91,SW,220,0.0,4.0,98,0.00,,SKC,0.00,0.00,VWS V14.01,2013-03-19 05:29:00,
2013-03-19 01:31:00,33.7,33.2,29.91,SW,220,0.0,4.0,98,0.00,,SKC,0.00,0.00,VWS V14.01,2013-03-19 05:31:00,
2013-03-19 01:33:00,33.7,33.2,29.91,SW,219,0.0,2.0,98,0.00,,SKC,0.00,0.00,VWS V14.01,2013-03-19 05:33:00,
2013-03-19 01:34:00,33.7,33.2,29.91,SW,219,0.0,2.0,98,0.00,,SKC,0.00,0.00,VWS V14.01,2013-03-19 05:34:00,
2013-03-19 01:36:00,33.8,33.3,29.90,SW,219,0.0,2.0,98,0.00,,SKC,0.00,0.00,VWS V14.01,2013-03-19 05:36:00,
2013-03-19 01:38:00,33.8,33.3,29.90,SW,220,0.0,2.0,98,0.00,,SKC,0.00,0.00,VWS V14.01,2013-03-19 05:38:00,
2013-03-19 01:39:00,33.8,33.3,29.90,SW,220,0.0,2.0,98,0.00,,SKC,0.00,0.00,VWS V14.01,2013-03-19 05:39:00,
2013-03-19 01:41:00,33.8,33.3,29.90,SW,220,0.0,2.0,98,0.00,,SKC,0.00,0.00,VWS V14.01,2013-03-19 05:41:00,
2013-03-19 01:43:00,33.8,33.3,29.90,SW,220,0.0,2.0,98,0.00,,SKC,0.00,0.00,VWS V14.01,2013-03-19 05:43:00,
2013-03-19 01:44:00,33.8,33.3,29.90,SW,220,0.0,2.0,98,0.00,,SKC,0.00,0.00,VWS V14.01,2013-03-19 05:44:00,
2013-03-19 01:46:00,33.8,33.3,29.90,SW,220,0.0,2.0,98,0.00,,SKC,0.00,0.00,VWS V14.01,2013-03-19 05:46:00,
2013-03-19 01:48:00,33.8,33.3,29.90,SW,220,0.0,2.0,98,0.00,,SKC,0.00,0.00,VWS V14.01,2013-03-19 05:48:00,
2013-03-19 01:49:00,33.8,33.3,29.90,SW,220,0.0,2.0,98,0.00,,SKC,0.00,0.00,VWS V14.01,2013-03-19 05:49:00,
2013-03-19 01:51:00,33.8,33.3,29.90,SW,219,0.0,2.0,98,0.00,,SKC,0.00,0.00,VWS V14.01,2013-03-19 05:51:00,
2013-03-19 01:53:00,33.8,33.3,29.90,SW,220,0.0,2.0,98,0.00,,SKC,0.00,0.00,VWS V14.01,2013-03-19 05:53:00,
2013-03-19 01:54:00,33.8,33.3,29.90,SW,220,0.0,2.0,98,0.00,,SKC,0.00,0.00,VWS V14.01,2013-03-19 05:54:00,
2013-03-19 01:56:00,33.8,33.3,29.89,SW,217,1.0,2.0,98,0.00,,SKC,0.00,0.00,VWS V14.01,2013-03-19 05:56:00,
2013-03-19 01:58:00,33.8,33.3,29.89,SW,217,0.0,2.0,98,0.00,,SKC,0.00,0.00,VWS V14.01,2013-03-19 05:58:00,
2013-03-19 01:59:00,33.8,33.3,29.89,SW,217,0.0,2.0,98,0.00,,SKC,0.00,0.00,VWS V14.01,2013-03-19 05:59:00,
2013-03-19 02:02:00,33.8,33.3,29.89,SW,217,0.0,0.0,98,0.00,,SKC,0.00,0.00,VWS V14.01,2013-03-19 06:02:00,
2013-03-19 02:04:00,33.8,33.3,29.89,SW,217,0.0,0.0,98,0.00,,SKC,0.00,0.00,VWS V14.01,2013-03-19 06:04:00,
2013-03-19 02:08:00,33.8,33.3,29.89,SW,217,0.0,0.0,98,0.00,,SKC,0.00,0.00,VWS V14.01,2013-03-19 06:08:00,
2013-03-19 02:09:00,33.8,33.3,29.89,SW,217,0.0,1.0,98,0.00,,SKC,0.00,0.00,VWS V14.01,2013-03-19 06:09:00,
2013-03-19 02:10:00,33.7,33.2,29.89,SW,217,0.0,1.0,98,0.00,,SKC,0.00,0.00,VWS V14.01,2013-03-19 06:10:00,
2013-03-19 02:13:00,33.8,33.3,29.89,SW,217,0.0,1.0,98,0.00,,SKC,0.00,0.00,VWS V14.01,2013-03-19 06:13:00,
2013-03-19 02:14:00,33.8,33.3,29.89,SW,217,0.0,1.0,98,0.00,,SKC,0.00,0.00,VWS V14.01,2013-03-19 06:14:00,
2013-03-19 02:15:00,33.8,33.3,29.89,SW,217,0.0,1.0,98,0.00,,SKC,0.00,0.00,VWS V14.01,2013-03-19 06:15:00,
2013-03-19 02:18:00,33.8,33.3,29.89,SW,217,0.0,1.0,98,0.00,,SKC,0.00,0.00,VWS V14.01,2013-03-19 06:18:00,
2013-03-19 02:19:00,33.8,33.3,29.89,SSW,202,1.0,1.0,98,0.00,,SKC,0.00,0.00,VWS V14.01,2013-03-19 06:19:00,
2013-03-19 02:20:00,33.8,33.3,29.89,South,185,2.0,2.0,98,0.00,,SKC,0.00,0.00,VWS V14.01,2013-03-19 06:20:00,
2013-03-19 02:23:00,33.8,33.3,29.88,South,185,0.0,2.0,98,0.00,,SKC,0.00,0.00,VWS V14.01,2013-03-19 06:23:00,
2013-03-19 02:24:00,33.8,33.3,29.88,South,185,1.0,2.0,98,0.00,,SKC,0.00,0.00,VWS V14.01,2013-03-19 06:24:00,
2013-03-19 02:25:00,33.7,33.2,29.88,South,179,2.0,2.0,98,0.00,,SKC,0.00,0.00,VWS V14.01,2013-03-19 06:25:00,
2013-03-19 02:28:00,33.7,33.2,29.88,South,179,0.0,2.0,98,0.00,,SKC,0.00,0.00,VWS V14.01,2013-03-19 06:28:00,
2013-03-19 02:29:00,33.7,33.2,29.88,South,179,0.0,2.0,98,0.00,,SKC,0.00,0.00,VWS V14.01,2013-03-19 06:29:00,
2013-03-19 02:30:00,33.7,33.2,29.88,South,179,0.0,2.0,98,0.00,,SKC,0.00,0.00,VWS V14.01,2013-03-19 06:30:00,
2013-03-19 02:33:00,33.7,33.2,29.88,South,179,0.0,1.0,98,0.00,,SKC,0.00,0.00,VWS V14.01,2013-03-19 06:33:00,
2013-03-19 02:35:00,33.7,33.2,29.88,South,179,0.0,1.0,98,0.00,,SKC,0.00,0.00,VWS V14.01,2013-03-19 06:35:00,
2013-03-19 02:38:00,33.6,33.1,29.89,South,179,0.0,1.0,98,0.00,,SKC,0.00,0.00,VWS V14.01,2013-03-19 06:38:00,
2013-03-19 02:40:00,33.6,33.1,29.88,South,179,0.0,1.0,98,0.00,,SKC,0.00,0.00,VWS V14.01,2013-03-19 06:40:00,
2013-03-19 02:44:00,33.5,33.0,29.88,South,179,0.0,1.0,98,0.00,,SKC,0.00,0.00,VWS V14.01,2013-03-19 06:44:00,
2013-03-19 02:45:00,33.6,33.1,29.88,South,179,0.0,1.0,98,0.00,,SKC,0.00,0.00,VWS V14.01,2013-03-19 06:45:00,
2013-03-19 02:49:00,33.5,33.0,29.88,South,179,0.0,1.0,98,0.00,,SKC,0.00,0.00,VWS V14.01,2013-03-19 06:49:00,
2013-03-19 02:50:00,33.5,33.0,29.88,South,179,0.0,1.0,98,0.00,,SKC,0.00,0.00,VWS V14.01,2013-03-19 06:50:00,
2013-03-19 02:51:00,33.5,33.0,29.88,South,179,0.0,1.0,98,0.00,,SKC,0.00,0.00,VWS V14.01,2013-03-19 06:51:00,
2013-03-19 02:54:00,33.5,33.0,29.88,South,179,0.0,1.0,98,0.00,,SKC,0.00,0.00,VWS V14.01,2013-03-19 06:54:00,
2013-03-19 02:55:00,33.5,33.0,29.88,South,179,0.0,1.0,98,0.00,,SKC,0.00,0.00,VWS V14.01,2013-03-19 06:55:00,
2013-03-19 02:56:00,33.5,33.0,29.88,South,179,0.0,1.0,98,0.00,,SKC,0.00,0.00,VWS V14.01,2013-03-19 06:56:00,
2013-03-19 02:59:00,33.4,32.9,29.88,South,179,0.0,1.0,98,0.00,,SKC,0.00,0.00,VWS V14.01,2013-03-19 06:59:00,
2013-03-19 03:00:00,33.4,32.9,29.88,South,179,0.0,1.0,98,0.00,,SKC,0.00,0.00,VWS V14.01,2013-03-19 07:00:00,
2013-03-19 03:01:00,33.4,32.9,29.88,South,179,0.0,1.0,98,0.00,,SKC,0.00,0.00,VWS V14.01,2013-03-19 07:01:00,
2013-03-19 03:05:00,33.4,32.9,29.88,South,179,0.0,2.0,98,0.00,,SKC,0.00,0.00,VWS V14.01,2013-03-19 07:05:00,
2013-03-19 03:06:00,33.4,32.9,29.88,South,179,0.0,2.0,98,0.00,,SKC,0.00,0.00,VWS V14.01,2013-03-19 07:06:00,
2013-03-19 03:07:00,33.3,32.8,29.88,South,179,0.0,2.0,98,0.00,,SKC,0.00,0.00,VWS V14.01,2013-03-19 07:07:00,
2013-03-19 03:10:00,33.3,32.8,29.88,South,179,0.0,2.0,98,0.00,,SKC,0.00,0.00,VWS V14.01,2013-03-19 07:10:00,
2013-03-19 03:11:00,33.3,32.8,29.87,South,179,0.0,2.0,98,0.00,,SKC,0.00,0.00,VWS V14.01,2013-03-19 07:11:00,
2013-03-19 03:12:00,33.3,32.8,29.87,South,179,0.0,2.0,98,0.00,,SKC,0.00,0.00,VWS V14.01,2013-03-19 07:12:00,
2013-03-19 03:15:00,33.2,32.7,29.87,South,179,0.0,2.0,98,0.00,,SKC,0.00,0.00,VWS V14.01,2013-03-19 07:15:00,
2013-03-19 03:16:00,33.2,32.7,29.87,South,179,0.0,2.0,98,0.00,,SKC,0.00,0.00,VWS V14.01,2013-03-19 07:16:00,
2013-03-19 03:18:00,33.2,32.7,29.87,South,179,1.0,2.0,98,0.00,,SKC,0.00,0.00,VWS V14.01,2013-03-19 07:18:00,
2013-03-19 03:20:00,33.2,32.7,29.86,South,179,0.0,2.0,98,0.00,,SKC,0.00,0.00,VWS V14.01,2013-03-19 07:20:00,
2013-03-19 03:22:00,33.2,32.7,29.87,South,179,0.0,2.0,98,0.00,,SKC,0.00,0.00,VWS V14.01,2013-03-19 07:22:00,
2013-03-19 03:23:00,33.2,32.7,29.87,South,179,0.0,2.0,98,0.00,,SKC,0.00,0.00,VWS V14.01,2013-03-19 07:23:00,
2013-03-19 03:25:00,33.1,32.6,29.87,South,179,0.0,2.0,98,0.00,,SKC,0.00,0.00,VWS V14.01,2013-03-19 07:25:00,
2013-03-19 03:27:00,33.1,32.6,29.87,South,179,0.0,2.0,98,0.00,,SKC,0.00,0.00,VWS V14.01,2013-03-19 07:27:00,
2013-03-19 03:28:00,33.1,32.6,29.87,South,179,0.0,2.0,98,0.00,,SKC,0.00,0.00,VWS V14.01,2013-03-19 07:28:00,
2013-03-19 03:30:00,33.1,32.6,29.86,South,179,0.0,2.0,98,0.00,,SKC,0.00,0.00,VWS V14.01,2013-03-19 07:30:00,
2013-03-19 03:31:00,33.1,32.6,29.86,South,179,0.0,0.0,98,0.00,,SKC,0.00,0.00,VWS V14.01,2013-03-19 07:31:00,
2013-03-19 03:32:00,33.1,32.6,29.86,South,179,0.0,0.0,98,0.00,,SKC,0.00,0.00,VWS V14.01,2013-03-19 07:32:00,
2013-03-19 03:33:00,33.1,32.6,29.86,South,179,0.0,0.0,98,0.00,,SKC,0.00,0.00,VWS V14.01,2013-03-19 07:33:00,
2013-03-19 03:36:00,33.1,32.6,29.86,South,179,0.0,0.0,98,0.00,,SKC,0.00,0.00,VWS V14.01,2013-03-19 07:36:00,
2013-03-19 03:37:00,33.1,32.6,29.86,South,179,0.0,0.0,98,0.00,,SKC,0.00,0.00,VWS V14.01,2013-03-19 07:37:00,
2013-03-19 03:38:00,33.1,32.6,29.86,South,179,0.0,1.0,98,0.00,,SKC,0.00,0.00,VWS V14.01,2013-03-19 07:38:00,
2013-03-19 03:41:00,33.1,32.6,29.86,South,179,1.0,1.0,98,0.00,,SKC,0.00,0.00,VWS V14.01,2013-03-19 07:41:00,
2013-03-19 03:42:00,33.1,32.6,29.86,South,179,1.0,2.0,98,0.00,,SKC,0.00,0.00,VWS V14.01,2013-03-19 07:42:00,
2013-03-19 03:43:00,33.0,32.5,29.86,South,179,0.0,2.0,98,0.00,,SKC,0.00,0.00,VWS V14.01,2013-03-19 07:43:00,
2013-03-19 03:47:00,33.0,32.5,29.86,South,179,0.0,2.0,98,0.00,,SKC,0.00,0.00,VWS V14.01,2013-03-19 07:47:00,
2013-03-19 03:48:00,33.0,32.5,29.86,South,179,0.0,2.0,98,0.00,,SKC,0.00,0.00,VWS V14.01,2013-03-19 07:48:00,
2013-03-19 03:52:00,32.9,32.4,29.86,South,179,0.0,2.0,98,0.00,,SKC,0.00,0.00,VWS V14.01,2013-03-19 07:52:00,
2013-03-19 03:53:00,32.9,32.4,29.86,South,179,1.0,2.0,98,0.00,,SKC,0.00,0.00,VWS V14.01,2013-03-19 07:53:00,
2013-03-19 03:57:00,32.9,32.4,29.86,South,179,0.0,2.0,98,0.00,,SKC,0.00,0.00,VWS V14.01,2013-03-19 07:57:00,
2013-03-19 03:58:00,32.9,32.4,29.86,South,179,2.0,2.0,98,0.00,,SKC,0.00,0.00,VWS V14.01,2013-03-19 07:58:00,
2013-03-19 04:02:00,33.1,32.6,29.86,West,272,1.0,2.0,98,0.00,,SKC,0.00,0.00,VWS V14.01,2013-03-19 08:02:00,
2013-03-19 04:03:00,33.2,32.7,29.86,West,272,1.0,2.0,98,0.00,,SKC,0.00,0.00,VWS V14.01,2013-03-19 08:03:00,
2013-03-19 04:07:00,33.2,32.7,29.85,West,272,0.0,2.0,98,0.00,,SKC,0.00,0.00,VWS V14.01,2013-03-19 08:07:00,
2013-03-19 04:08:00,33.2,32.7,29.85,West,272,0.0,2.0,98,0.00,,SKC,0.00,0.00,VWS V14.01,2013-03-19 08:08:00,
2013-03-19 04:12:00,33.2,32.7,29.85,West,272,0.0,2.0,98,0.00,,SKC,0.00,0.00,VWS V14.01,2013-03-19 08:12:00,
2013-03-19 04:13:00,33.2,32.7,29.85,West,272,0.0,2.0,98,0.00,,SKC,0.00,0.00,VWS V14.01,2013-03-19 08:13:00,
2013-03-19 04:14:00,33.2,32.7,29.85,West,272,0.0,2.0,98,0.00,,SKC,0.00,0.00,VWS V14.01,2013-03-19 08:14:00,
2013-03-19 04:17:00,33.2,32.7,29.85,West,272,0.0,2.0,98,0.00,,SKC,0.00,0.00,VWS V14.01,2013-03-19 08:17:00,
2013-03-19 04:18:00,33.1,32.6,29.85,West,272,0.0,2.0,98,0.00,,SKC,0.00,0.00,VWS V14.01,2013-03-19 08:18:00,
2013-03-19 04:19:00,33.1,32.6,29.85,West,272,2.0,2.0,98,0.00,,SKC,0.00,0.00,VWS V14.01,2013-03-19 08:19:00,
2013-03-19 04:22:00,33.1,32.6,29.84,West,275,1.0,2.0,98,0.00,,SKC,0.00,0.00,VWS V14.01,2013-03-19 08:22:00,
2013-03-19 04:23:00,33.1,32.6,29.84,West,275,0.0,2.0,98,0.00,,SKC,0.00,0.00,VWS V14.01,2013-03-19 08:23:00,
2013-03-19 04:24:00,33.0,32.5,29.85,West,275,0.0,2.0,98,0.00,,SKC,0.00,0.00,VWS V14.01,2013-03-19 08:24:00,
2013-03-19 04:27:00,33.0,32.5,29.84,West,275,0.0,2.0,98,0.00,,SKC,0.00,0.00,VWS V14.01,2013-03-19 08:27:00,
2013-03-19 04:28:00,33.0,32.5,29.84,West,275,0.0,2.0,98,0.00,,SKC,0.00,0.00,VWS V14.01,2013-03-19 08:28:00,
2013-03-19 04:29:00,33.0,32.5,29.84,West,275,0.0,2.0,98,0.00,,SKC,0.00,0.00,VWS V14.01,2013-03-19 08:29:00,
2013-03-19 04:32:00,33.0,32.5,29.83,West,275,0.0,0.0,98,0.00,,SKC,0.00,0.00,VWS V14.01,2013-03-19 08:32:00,
2013-03-19 04:33:00,33.0,32.5,29.83,West,275,0.0,0.0,98,0.00,,SKC,0.00,0.00,VWS V14.01,2013-03-19 08:33:00,
2013-03-19 04:34:00,33.0,32.5,29.84,West,275,0.0,0.0,98,0.00,,SKC,0.00,0.00,VWS V14.01,2013-03-19 08:34:00,
2013-03-19 04:38:00,33.2,32.7,29.83,West,275,0.0,1.0,98,0.00,,SKC,0.00,0.00,VWS V14.01,2013-03-19 08:38:00,
2013-03-19 04:39:00,33.2,32.7,29.84,West,275,0.0,1.0,98,0.00,,SKC,0.00,0.00,VWS V14.01,2013-03-19 08:39:00,
2013-03-19 04:43:00,33.2,32.7,29.84,West,275,1.0,2.0,98,0.00,,SKC,0.00,0.00,VWS V14.01,2013-03-19 08:43:00,
2013-03-19 04:44:00,33.2,32.7,29.84,West,275,1.0,2.0,98,0.00,,SKC,0.00,0.00,VWS V14.01,2013-03-19 08:44:00,
2013-03-19 04:48:00,33.1,32.6,29.83,West,275,1.0,2.0,98,0.00,,SKC,0.00,0.00,VWS V14.01,2013-03-19 08:48:00,
2013-03-19 04:49:00,33.1,32.6,29.83,West,275,3.0,3.0,98,0.00,,SKC,0.00,0.00,VWS V14.01,2013-03-19 08:49:00,
2013-03-19 04:53:00,33.0,32.5,29.83,NW,306,0.0,3.0,98,0.00,,SKC,0.00,0.00,VWS V14.01,2013-03-19 08:53:00,
2013-03-19 04:54:00,33.0,32.5,29.83,NW,306,0.0,3.0,98,0.00,,SKC,0.00,0.00,VWS V14.01,2013-03-19 08:54:00,
2013-03-19 04:58:00,33.0,32.5,29.83,NW,306,0.0,3.0,98,0.00,,SKC,0.00,0.00,VWS V14.01,2013-03-19 08:58:00,
2013-03-19 04:59:00,33.0,32.5,29.83,NW,306,0.0,3.0,98,0.00,,SKC,0.00,0.00,VWS V14.01,2013-03-19 08:59:00,
2013-03-19 05:03:00,33.0,32.5,29.83,NW,306,2.0,2.0,98,0.00,,SKC,0.00,0.00,VWS V14.01,2013-03-19 09:03:00,
2013-03-19 05:04:00,33.0,32.5,29.83,NW,306,2.0,2.0,98,0.00,,SKC,0.00,0.00,VWS V14.01,2013-03-19 09:04:00,
2013-03-19 05:05:00,33.0,32.5,29.83,NW,306,1.0,2.0,98,0.00,,SKC,0.00,0.00,VWS V14.01,2013-03-19 09:05:00,
2013-03-19 05:09:00,33.0,32.5,29.83,NW,306,0.0,3.0,98,0.00,,SKC,0.00,0.00,VWS V14.01,2013-03-19 09:09:00,
2013-03-19 05:11:00,33.0,32.5,29.83,NW,306,0.0,3.0,98,0.00,,SKC,0.00,0.00,VWS V14.01,2013-03-19 09:11:00,
2013-03-19 05:14:00,33.0,32.5,29.83,NW,306,1.0,3.0,98,0.00,,SKC,0.00,0.00,VWS V14.01,2013-03-19 09:14:00,
2013-03-19 05:16:00,33.1,32.6,29.83,NW,314,4.0,4.0,98,0.00,,SKC,0.00,0.00,VWS V14.01,2013-03-19 09:16:00,
2013-03-19 05:19:00,33.2,32.7,29.83,NW,314,0.0,4.0,98,0.00,,SKC,0.00,0.00,VWS V14.01,2013-03-19 09:19:00,
2013-03-19 05:20:00,33.2,32.7,29.83,West,272,4.0,4.0,98,0.00,,SKC,0.00,0.00,VWS V14.01,2013-03-19 09:20:00,
2013-03-19 05:22:00,34.2,33.7,29.84,SW,217,2.0,8.0,98,0.00,,SKC,0.00,0.00,VWS V14.01,2013-03-19 09:22:00,
2013-03-19 05:24:00,34.9,34.7,29.84,SSE,166,4.0,8.0,99,0.00,,SKC,0.00,0.00,VWS V14.01,2013-03-19 09:24:00,
2013-03-19 05:26:00,35.2,34.7,29.84,SSW,213,1.0,8.0,98,0.00,,SKC,0.00,0.00,VWS V14.01,2013-03-19 09:26:00,
2013-03-19 05:27:00,35.3,34.8,29.84,SSW,213,2.0,8.0,98,0.00,,SKC,0.00,0.00,VWS V14.01,2013-03-19 09:27:00,
2013-03-19 05:29:00,35.7,35.2,29.84,SSW,213,2.0,8.0,98,0.00,,SKC,0.00,0.00,VWS V14.01,2013-03-19 09:29:00,
2013-03-19 05:31:00,36.1,35.6,29.84,SW,234,3.0,6.0,98,0.00,,SKC,0.00,0.00,VWS V14.01,2013-03-19 09:31:00,
2013-03-19 05:32:00,36.3,36.0,29.84,SW,229,5.0,7.0,99,0.00,,SKC,0.00,0.00,VWS V14.01,2013-03-19 09:32:00,
2013-03-19 05:34:00,37.0,36.8,29.84,SW,219,2.0,9.0,99,0.00,,SKC,0.00,0.00,VWS V14.01,2013-03-19 09:34:00,
2013-03-19 05:35:00,37.1,36.8,29.84,WSW,237,4.0,9.0,99,0.00,,SKC,0.00,0.00,VWS V14.01,2013-03-19 09:35:00,
2013-03-19 05:37:00,37.5,37.2,29.84,West,273,4.0,9.0,99,0.00,,SKC,0.00,0.00,VWS V14.01,2013-03-19 09:37:00,
2013-03-19 05:38:00,37.7,37.5,29.84,West,268,5.0,9.0,99,0.00,,SKC,0.00,0.00,VWS V14.01,2013-03-19 09:38:00,
2013-03-19 05:39:00,37.9,37.4,29.84,WNW,296,2.0,9.0,98,0.00,,SKC,0.00,0.00,VWS V14.01,2013-03-19 09:39:00,
2013-03-19 05:40:00,37.9,37.4,29.84,WNW,296,0.0,9.0,98,0.00,,SKC,0.00,0.00,VWS V14.01,2013-03-19 09:40:00,
2013-03-19 05:42:00,37.9,37.4,29.84,WNW,296,2.0,9.0,98,0.00,,SKC,0.00,0.00,VWS V14.01,2013-03-19 09:42:00,
2013-03-19 05:43:00,37.9,37.4,29.84,WNW,296,0.0,9.0,98,0.00,,SKC,0.00,0.00,VWS V14.01,2013-03-19 09:43:00,
2013-03-19 05:44:00,37.8,37.3,29.84,WNW,296,3.0,9.0,98,0.00,,SKC,0.00,0.00,VWS V14.01,2013-03-19 09:44:00,
2013-03-19 05:45:00,37.8,37.3,29.84,WNW,296,1.0,9.0,98,0.00,,SKC,0.00,0.00,VWS V14.01,2013-03-19 09:45:00,
2013-03-19 05:47:00,37.6,37.1,29.84,NNW,328,0.0,9.0,98,0.00,,SKC,0.00,0.00,VWS V14.01,2013-03-19 09:47:00,
2013-03-19 05:48:00,37.4,36.9,29.84,NNW,328,0.0,9.0,98,0.00,,SKC,0.00,0.00,VWS V14.01,2013-03-19 09:48:00,
2013-03-19 05:49:00,37.3,36.5,29.84,NNW,342,2.0,9.0,97,0.00,,SKC,0.00,0.00,VWS V14.01,2013-03-19 09:49:00,
2013-03-19 05:50:00,37.1,36.3,29.84,NNW,343,1.0,9.0,97,0.00,,SKC,0.00,0.00,VWS V14.01,2013-03-19 09:50:00,
2013-03-19 05:52:00,37.0,36.2,29.85,NNW,347,2.0,9.0,97,0.00,,SKC,0.00,0.00,VWS V14.01,2013-03-19 09:52:00,
2013-03-19 05:53:00,36.8,36.0,29.85,NNW,347,3.0,9.0,97,0.00,,SKC,0.00,0.00,VWS V14.01,2013-03-19 09:53:00,
2013-03-19 05:54:00,36.7,35.9,29.84,North,11,3.0,9.0,97,0.00,,SKC,0.00,0.00,VWS V14.01,2013-03-19 09:54:00,
2013-03-19 05:55:00,36.6,35.8,29.85,North,11,0.0,9.0,97,0.00,,SKC,0.00,0.00,VWS V14.01,2013-03-19 09:55:00,
2013-03-19 05:57:00,36.5,35.7,29.84,NNE,29,4.0,9.0,97,0.00,,SKC,0.00,0.00,VWS V14.01,2013-03-19 09:57:00,
2013-03-19 05:58:00,36.4,35.6,29.85,NNE,26,3.0,9.0,97,0.00,,SKC,0.00,0.00,VWS V14.01,2013-03-19 09:58:00,
2013-03-19 05:59:00,36.4,35.6,29.85,North,355,4.0,9.0,97,0.00,,SKC,0.00,0.00,VWS V14.01,2013-03-19 09:59:00,
2013-03-19 06:00:00,36.3,35.5,29.85,NNE,16,5.0,9.0,97,0.00,,SKC,0.00,0.00,VWS V14.01,2013-03-19 10:00:00,
2013-03-19 06:02:00,36.2,35.4,29.85,North,5,1.0,7.0,97,0.00,,SKC,0.00,0.00,VWS V14.01,2013-03-19 10:02:00,
2013-03-19 06:03:00,36.2,35.4,29.84,East,79,6.0,8.0,97,0.00,,SKC,0.00,0.00,VWS V14.01,2013-03-19 10:03:00,
2013-03-19 06:05:00,36.4,35.6,29.84,NNW,342,1.0,8.0,97,0.00,,SKC,0.00,0.00,VWS V14.01,2013-03-19 10:05:00,
2013-03-19 06:07:00,36.6,36.1,29.85,NNE,14,1.0,8.0,98,0.00,,SKC,0.00,0.00,VWS V14.01,2013-03-19 10:07:00,
2013-03-19 06:09:00,36.7,36.2,29.85,North,10,5.0,8.0,98,0.00,,SKC,0.00,0.00,VWS V14.01,2013-03-19 10:09:00,
2013-03-19 06:10:00,36.8,36.3,29.85,NNW,339,4.0,9.0,98,0.00,,SKC,0.00,0.00,VWS V14.01,2013-03-19 10:10:00,
2013-03-19 06:11:00,37.0,36.5,29.85,West,259,3.0,9.0,98,0.00,,SKC,0.00,0.00,VWS V14.01,2013-03-19 10:11:00,
2013-03-19 06:12:00,37.5,37.0,29.85,SSW,198,5.0,9.0,98,0.00,,SKC,0.00,0.00,VWS V14.01,2013-03-19 10:12:00,
2013-03-19 06:14:00,37.9,37.4,29.85,SSE,156,1.0,9.0,98,0.00,,SKC,0.00,0.00,VWS V14.01,2013-03-19 10:14:00,
2013-03-19 06:15:00,38.0,37.5,29.85,NW,317,5.0,9.0,98,0.00,,SKC,0.00,0.00,VWS V14.01,2013-03-19 10:15:00,
2013-03-19 06:16:00,38.0,37.5,29.85,SW,234,0.0,9.0,98,0.00,,SKC,0.00,0.00,VWS V14.01,2013-03-19 10:16:00,
2013-03-19 06:17:00,38.2,37.7,29.85,WSW,241,1.0,9.0,98,0.00,,SKC,0.00,0.00,VWS V14.01,2013-03-19 10:17:00,
2013-03-19 06:19:00,38.2,37.7,29.86,SSE,151,1.0,9.0,98,0.00,,SKC,0.00,0.00,VWS V14.01,2013-03-19 10:19:00,
2013-03-19 06:20:00,38.1,37.6,29.86,SSE,151,0.0,9.0,98,0.00,,SKC,0.00,0.00,VWS V14.01,2013-03-19 10:20:00,
2013-03-19 06:21:00,38.1,37.3,29.86,ESE,121,4.0,9.0,97,0.00,,SKC,0.00,0.00,VWS V14.01,2013-03-19 10:21:00,
2013-03-19 06:22:00,38.0,37.2,29.86,SE,129,0.0,9.0,97,0.00,,SKC,0.00,0.00,VWS V14.01,2013-03-19 10:22:00,
2013-03-19 06:24:00,38.0,37.2,29.86,SE,128,1.0,9.0,97,0.00,,SKC,0.00,0.00,VWS V14.01,2013-03-19 10:24:00,
2013-03-19 06:25:00,38.0,37.2,29.86,SE,128,1.0,9.0,97,0.00,,SKC,0.00,0.00,VWS V14.01,2013-03-19 10:25:00,
2013-03-19 06:27:00,38.0,37.2,29.86,SE,128,2.0,9.0,97,0.00,,SKC,0.00,0.00,VWS V14.01,2013-03-19 10:27:00,
2013-03-19 06:29:00,37.9,37.1,29.86,SE,128,3.0,9.0,97,0.00,,SKC,0.00,0.00,VWS V14.01,2013-03-19 10:29:00,
2013-03-19 06:30:00,37.9,37.1,29.86,SE,124,4.0,9.0,97,0.00,,SKC,0.00,0.00,VWS V14.01,2013-03-19 10:30:00,
2013-03-19 06:32:00,37.9,37.1,29.86,SE,124,1.0,3.0,97,0.00,,SKC,0.00,0.00,VWS V14.01,2013-03-19 10:32:00,
2013-03-19 06:33:00,37.9,37.1,29.86,SE,124,1.0,3.0,97,0.00,,SKC,0.00,0.00,VWS V14.01,2013-03-19 10:33:00,
2013-03-19 06:34:00,37.8,37.0,29.87,SE,126,1.0,3.0,97,0.00,,SKC,0.00,0.00,VWS V14.01,2013-03-19 10:34:00,
2013-03-19 06:35:00,37.8,37.0,29.87,SE,126,2.0,3.0,97,0.00,,SKC,0.00,0.00,VWS V14.01,2013-03-19 10:35:00,
2013-03-19 06:38:00,37.8,37.0,29.87,SE,125,2.0,3.0,97,0.00,,SKC,0.00,0.00,VWS V14.01,2013-03-19 10:38:00,
2013-03-19 06:40:00,37.8,37.0,29.87,SE,125,1.0,3.0,97,0.00,,SKC,0.00,0.00,VWS V14.01,2013-03-19 10:40:00,
2013-03-19 06:43:00,37.8,37.0,29.87,SE,125,1.0,3.0,97,0.00,,SKC,0.00,0.00,VWS V14.01,2013-03-19 10:43:00,
2013-03-19 06:45:00,37.7,36.9,29.87,SE,125,3.0,4.0,97,0.00,,SKC,0.00,0.00,VWS V14.01,2013-03-19 10:45:00,
2013-03-19 06:48:00,37.7,36.9,29.87,SE,125,2.0,4.0,97,0.00,,SKC,0.00,0.00,VWS V14.01,2013-03-19 10:48:00,
2013-03-19 06:50:00,37.8,37.0,29.87,South,188,2.0,4.0,97,0.00,,SKC,0.00,0.00,VWS V14.01,2013-03-19 10:50:00,
2013-03-19 06:53:00,37.9,37.1,29.88,South,185,4.0,4.0,97,0.00,,SKC,0.00,0.00,VWS V14.01,2013-03-19 10:53:00,
2013-03-19 06:55:00,38.0,37.2,29.88,SE,127,5.0,5.0,97,0.00,,SKC,0.00,0.00,VWS V14.01,2013-03-19 10:55:00,
2013-03-19 06:56:00,38.1,37.3,29.87,SE,132,2.0,5.0,97,0.00,,SKC,0.00,0.00,VWS V14.01,2013-03-19 10:56:00,
2013-03-19 06:58:00,38.1,37.3,29.88,SE,132,3.0,5.0,97,0.00,,SKC,0.00,0.00,VWS V14.01,2013-03-19 10:58:00,
2013-03-19 07:00:00,38.2,37.4,29.88,SE,132,1.0,5.0,97,0.00,,SKC,0.00,0.00,VWS V14.01,2013-03-19 11:00:00,
2013-03-19 07:02:00,38.2,37.4,29.88,SE,132,2.0,2.0,97,0.00,,SKC,0.00,0.00,VWS V14.01,2013-03-19 11:02:00,
2013-03-19 07:03:00,38.2,37.4,29.88,SE,132,2.0,3.0,97,0.00,,SKC,0.00,0.00,VWS V14.01,2013-03-19 11:03:00,
2013-03-19 07:04:00,38.2,37.4,29.88,ESE,111,5.0,5.0,97,0.00,,SKC,0.00,0.00,VWS V14.01,2013-03-19 11:04:00,
2013-03-19 07:05:00,38.2,37.4,29.88,ESE,117,3.0,5.0,97,0.00,,SKC,0.00,0.00,VWS V14.01,2013-03-19 11:05:00,
2013-03-19 07:07:00,38.3,37.5,29.88,SE,133,3.0,5.0,97,0.00,,SKC,0.00,0.00,VWS V14.01,2013-03-19 11:07:00,
2013-03-19 07:08:00,38.3,37.5,29.88,SE,132,2.0,5.0,97,0.00,,SKC,0.00,0.00,VWS V14.01,2013-03-19 11:08:00,
2013-03-19 07:09:00,38.4,37.6,29.88,SE,132,0.0,5.0,97,0.00,,SKC,0.00,0.00,VWS V14.01,2013-03-19 11:09:00,
2013-03-19 07:11:00,38.4,37.6,29.88,SE,132,1.0,5.0,97,0.00,,SKC,0.00,0.00,VWS V14.01,2013-03-19 11:11:00,
2013-03-19 07:12:00,38.5,37.7,29.88,SW,229,2.0,5.0,97,0.00,,SKC,0.00,0.00,VWS V14.01,2013-03-19 11:12:00,
2013-03-19 07:13:00,38.6,37.8,29.88,SW,229,0.0,5.0,97,0.00,,SKC,0.00,0.00,VWS V14.01,2013-03-19 11:13:00,
2013-03-19 07:14:00,38.6,37.8,29.88,SW,229,0.0,5.0,97,0.00,,SKC,0.00,0.00,VWS V14.01,2013-03-19 11:14:00,
2013-03-19 07:16:00,38.7,37.9,29.88,NW,323,0.0,5.0,97,0.00,,SKC,0.00,0.00,VWS V14.01,2013-03-19 11:16:00,
2013-03-19 07:17:00,38.8,38.0,29.88,NW,322,1.0,5.0,97,0.00,,SKC,0.00,0.00,VWS V14.01,2013-03-19 11:17:00,
2013-03-19 07:19:00,39.0,38.2,29.88,NW,311,3.0,5.0,97,0.00,,SKC,0.00,0.00,VWS V14.01,2013-03-19 11:19:00,
2013-03-19 07:21:00,40.0,39.5,29.87,West,270,6.0,12.0,98,0.00,,SKC,0.00,0.00,VWS V14.01,2013-03-19 11:21:00,
2013-03-19 07:22:00,40.5,40.0,29.87,West,278,8.0,12.0,98,0.00,,SKC,0.00,0.00,VWS V14.01,2013-03-19 11:22:00,
2013-03-19 07:24:00,41.2,40.7,29.87,West,281,10.0,12.0,98,0.00,,SKC,0.00,0.00,VWS V14.01,2013-03-19 11:24:00,
2013-03-19 07:26:00,42.0,41.5,29.87,West,273,9.0,12.0,98,0.00,,SKC,0.00,0.00,VWS V14.01,2013-03-19 11:26:00,
2013-03-19 07:27:00,42.2,41.7,29.87,West,272,8.0,12.0,98,0.00,,SKC,0.00,0.00,VWS V14.01,2013-03-19 11:27:00,
2013-03-19 07:29:00,42.7,41.9,29.87,WSW,246,6.0,12.0,97,0.00,,SKC,0.00,0.00,VWS V14.01,2013-03-19 11:29:00,
2013-03-19 07:32:00,43.3,42.2,29.87,West,275,3.0,5.0,96,0.00,,SKC,0.00,5.00,VWS V14.01,2013-03-19 11:32:00,
2013-03-19 07:34:00,43.5,42.2,29.88,West,269,2.0,5.0,95,0.00,,SKC,0.00,7.00,VWS V14.01,2013-03-19 11:34:00,
2013-03-19 07:35:00,43.5,42.2,29.88,West,269,4.0,5.0,95,0.00,,SKC,0.00,7.00,VWS V14.01,2013-03-19 11:35:00,
2013-03-19 07:37:00,43.6,42.0,29.87,West,261,6.0,12.0,94,0.00,,SKC,0.00,11.00,VWS V14.01,2013-03-19 11:37:00,
2013-03-19 07:38:00,43.6,42.0,29.87,WSW,254,5.0,12.0,94,0.00,,SKC,0.00,12.00,VWS V14.01,2013-03-19 11:38:00,
2013-03-19 07:40:00,43.9,42.0,29.88,West,269,10.0,12.0,93,0.00,,SKC,0.00,14.00,VWS V14.01,2013-03-19 11:40:00,
2013-03-19 07:42:00,44.2,42.0,29.88,WSW,238,8.0,13.0,92,0.00,,SKC,0.00,16.00,VWS V14.01,2013-03-19 11:42:00,
2013-03-19 07:43:00,44.2,42.0,29.88,WSW,252,5.0,13.0,92,0.00,,SKC,0.00,18.00,VWS V14.01,2013-03-19 11:43:00,
2013-03-19 07:45:00,44.4,41.7,29.88,WSW,256,8.0,15.0,90,0.00,,SKC,0.00,19.00,VWS V14.01,2013-03-19 11:45:00,
2013-03-19 07:47:00,44.4,41.7,29.88,WNW,294,13.0,15.0,90,0.00,,SKC,0.00,23.00,VWS V14.01,2013-03-19 11:47:00,
2013-03-19 07:48:00,44.5,41.8,29.88,WNW,300,6.0,15.0,90,0.00,,SKC,0.00,25.00,VWS V14.01,2013-03-19 11:48:00,
2013-03-19 07:50:00,44.5,41.5,29.88,West,263,11.0,15.0,89,0.00,,SKC,0.00,28.00,VWS V14.01,2013-03-19 11:50:00,
2013-03-19 07:52:00,44.6,41.3,29.88,WSW,248,6.0,16.0,88,0.00,,SKC,0.00,33.00,VWS V14.01,2013-03-19 11:52:00,
2013-03-19 07:53:00,44.6,41.3,29.88,West,269,9.0,16.0,88,0.00,,SKC,0.00,35.00,VWS V14.01,2013-03-19 11:53:00,
2013-03-19 07:55:00,44.5,41.2,29.88,West,269,15.0,16.0,88,0.00,,SKC,0.00,37.00,VWS V14.01,2013-03-19 11:55:00,
2013-03-19 07:57:00,44.5,41.2,29.88,West,269,11.0,16.0,88,0.00,,SKC,0.00,40.00,VWS V14.01,2013-03-19 11:57:00,
2013-03-19 07:58:00,44.5,41.2,29.88,West,275,5.0,16.0,88,0.00,,SKC,0.00,40.00,VWS V14.01,2013-03-19 11:58:00,
2013-03-19 08:00:00,44.6,41.0,29.88,West,259,7.0,16.0,87,0.00,,SKC,0.00,42.00,VWS V14.01,2013-03-19 12:00:00,
2013-03-19 08:02:00,44.6,41.0,29.89,West,269,9.0,9.0,87,0.00,,SKC,0.00,46.00,VWS V14.01,2013-03-19 12:02:00,
2013-03-19 08:03:00,44.6,41.0,29.88,West,279,8.0,11.0,87,0.00,,SKC,0.00,47.00,VWS V14.01,2013-03-19 12:03:00,
2013-03-19 08:05:00,44.7,41.1,29.88,West,261,6.0,14.0,87,0.00,,SKC,0.00,49.00,VWS V14.01,2013-03-19 12:05:00,
2013-03-19 08:07:00,45.0,41.1,29.88,NW,321,10.0,14.0,86,0.00,,SKC,0.00,51.00,VWS V14.01,2013-03-19 12:07:00,
2013-03-19 08:08:00,45.0,41.1,29.88,West,279,5.0,14.0,86,0.00,,SKC,0.00,51.00,VWS V14.01,2013-03-19 12:08:00,
2013-03-19 08:10:00,45.1,40.9,29.88,West,277,8.0,14.0,85,0.00,,SKC,0.00,53.00,VWS V14.01,2013-03-19 12:10:00,
2013-03-19 08:11:00,45.1,40.9,29.88,WNW,283,7.0,14.0,85,0.00,,SKC,0.00,53.00,VWS V14.01,2013-03-19 12:11:00,
2013-03-19 08:13:00,45.1,40.9,29.88,WNW,283,13.0,14.0,85,0.00,,SKC,0.00,53.00,VWS V14.01,2013-03-19 12:13:00,
2013-03-19 08:15:00,45.2,40.7,29.88,WSW,245,4.0,15.0,84,0.00,,SKC,0.00,56.00,VWS V14.01,2013-03-19 12:15:00,
2013-03-19 08:16:00,45.2,40.7,29.88,WNW,292,3.0,15.0,84,0.00,,SKC,0.00,56.00,VWS V14.01,2013-03-19 12:16:00,
2013-03-19 08:18:00,45.2,40.7,29.88,West,272,7.0,15.0,84,0.00,,SKC,0.00,62.00,VWS V14.01,2013-03-19 12:18:00,
2013-03-19 08:20:00,45.4,40.5,29.88,West,273,6.0,15.0,83,0.00,,SKC,0.00,62.00,VWS V14.01,2013-03-19 12:20:00,
2013-03-19 08:23:00,45.4,40.5,29.88,West,279,6.0,15.0,83,0.00,,SKC,0.00,62.00,VWS V14.01,2013-03-19 12:23:00,
2013-03-19 08:25:00,45.5,40.7,29.89,WNW,303,5.0,15.0,83,0.00,,SKC,0.00,63.00,VWS V14.01,2013-03-19 12:25:00,
2013-03-19 08:28:00,45.5,40.3,29.88,West,277,14.0,15.0,82,0.00,,SKC,0.00,70.00,VWS V14.01,2013-03-19 12:28:00,
2013-03-19 08:29:00,45.5,40.3,29.89,SW,236,10.0,16.0,82,0.00,,SKC,0.00,74.00,VWS V14.01,2013-03-19 12:29:00,
2013-03-19 08:31:00,45.6,40.1,29.88,West,279,12.0,16.0,81,0.00,,SKC,0.00,79.00,VWS V14.01,2013-03-19 12:31:00,
2013-03-19 08:33:00,45.6,39.8,29.89,West,272,21.0,21.0,80,0.00,,SKC,0.00,84.00,VWS V14.01,2013-03-19 12:33:00,
2013-03-19 08:34:00,45.7,39.6,29.88,West,279,19.0,21.0,79,0.00,,SKC,0.00,90.00,VWS V14.01,2013-03-19 12:34:00,
2013-03-19 08:36:00,45.8,39.0,29.88,NW,317,17.0,23.0,77,0.00,,SKC,0.00,148.00,VWS V14.01,2013-03-19 12:36:00,
2013-03-19 08:38:00,46.0,38.9,29.89,NNW,333,3.0,23.0,76,0.00,,SKC,0.00,167.00,VWS V14.01,2013-03-19 12:38:00,
2013-03-19 08:39:00,46.0,38.9,29.89,West,265,7.0,23.0,76,0.00,,SKC,0.00,167.00,VWS V14.01,2013-03-19 12:39:00,
2013-03-19 08:41:00,46.1,39.0,29.90,NNW,346,5.0,23.0,76,0.00,,SKC,0.00,171.00,VWS V14.01,2013-03-19 12:41:00,
2013-03-19 08:43:00,46.1,38.3,29.89,West,271,22.0,23.0,74,0.00,,SKC,0.00,160.00,VWS V14.01,2013-03-19 12:43:00,
2013-03-19 08:44:00,46.1,37.2,29.89,WNW,301,10.0,23.0,71,0.00,,SKC,0.00,132.00,VWS V14.01,2013-03-19 12:44:00,
2013-03-19 08:46:00,46.0,36.8,29.89,WNW,284,11.0,23.0,70,0.00,,SKC,0.00,127.00,VWS V14.01,2013-03-19 12:46:00,
2013-03-19 08:48:00,46.0,36.0,29.90,WSW,244,4.0,23.0,68,0.00,,SKC,0.00,156.00,VWS V14.01,2013-03-19 12:48:00,
2013-03-19 08:49:00,45.9,36.3,29.90,WNW,299,13.0,23.0,69,0.00,,SKC,0.00,149.00,VWS V14.01,2013-03-19 12:49:00,
2013-03-19 08:50:00,45.9,36.0,29.90,WSW,249,16.0,23.0,68,0.00,,SKC,0.00,160.00,VWS V14.01,2013-03-19 12:50:00,
2013-03-19 08:51:00,45.9,35.6,29.90,NW,321,8.0,23.0,67,0.00,,SKC,0.00,165.00,VWS V14.01,2013-03-19 12:51:00,
2013-03-19 08:53:00,45.9,35.6,29.90,NNW,334,19.0,23.0,67,0.00,,SKC,0.00,174.00,VWS V14.01,2013-03-19 12:53:00,
2013-03-19 08:54:00,45.8,35.8,29.90,West,275,6.0,23.0,68,0.00,,SKC,0.00,172.00,VWS V14.01,2013-03-19 12:54:00,
2013-03-19 08:55:00,45.8,36.2,29.90,WNW,288,6.0,23.0,69,0.00,,SKC,0.00,195.00,VWS V14.01,2013-03-19 12:55:00,
2013-03-19 08:56:00,45.8,35.8,29.91,West,279,21.0,23.0,68,0.00,,SKC,0.00,204.00,VWS V14.01,2013-03-19 12:56:00,
2013-03-19 08:58:00,45.8,35.8,29.90,North,355,4.0,23.0,68,0.00,,SKC,0.00,230.00,VWS V14.01,2013-03-19 12:58:00,
2013-03-19 08:59:00,45.8,35.5,29.90,NW,313,6.0,23.0,67,0.00,,SKC,0.00,209.00,VWS V14.01,2013-03-19 12:59:00,
2013-03-19 09:00:00,45.8,35.8,29.90,NNW,338,17.0,23.0,68,0.00,,SKC,0.00,202.00,VWS V14.01,2013-03-19 13:00:00,
2013-03-19 09:02:00,45.7,35.8,29.90,NW,315,10.0,14.0,68,0.00,,SKC,0.00,192.00,VWS V14.01,2013-03-19 13:02:00,
2013-03-19 09:03:00,45.7,35.8,29.91,WNW,300,4.0,14.0,68,0.00,,SKC,0.00,195.00,VWS V14.01,2013-03-19 13:03:00,
2013-03-19 09:04:00,45.7,35.8,29.91,NNW,333,6.0,15.0,68,0.00,,SKC,0.00,160.00,VWS V14.01,2013-03-19 13:04:00,
2013-03-19 09:05:00,45.6,35.3,29.91,NW,307,14.0,17.0,67,0.00,,SKC,0.00,156.00,VWS V14.01,2013-03-19 13:05:00,
2013-03-19 09:07:00,45.5,34.0,29.91,WNW,297,12.0,23.0,64,0.00,,SKC,0.00,153.00,VWS V14.01,2013-03-19 13:07:00,
2013-03-19 09:08:00,45.4,33.6,29.90,North,355,13.0,23.0,63,0.00,,SKC,0.00,174.00,VWS V14.01,2013-03-19 13:08:00,
2013-03-19 09:09:00,45.3,33.9,29.90,West,273,16.0,23.0,64,0.00,,SKC,0.00,160.00,VWS V14.01,2013-03-19 13:09:00,
2013-03-19 09:10:00,45.3,33.9,29.90,NNW,336,14.0,23.0,64,0.00,,SKC,0.00,142.00,VWS V14.01,2013-03-19 13:10:00,
2013-03-19 09:12:00,45.2,33.4,29.90,NW,325,7.0,23.0,63,0.00,,SKC,0.00,139.00,VWS V14.01,2013-03-19 13:12:00,
2013-03-19 09:13:00,45.1,32.9,29.90,NNW,338,12.0,23.0,62,0.00,,SKC,0.00,213.00,VWS V14.01,2013-03-19 13:13:00,
2013-03-19 09:14:00,45.1,32.5,29.90,NW,305,7.0,23.0,61,0.00,,SKC,0.00,223.00,VWS V14.01,2013-03-19 13:14:00,
2013-03-19 09:15:00,45.1,32.5,29.90,West,277,6.0,23.0,61,0.00,,SKC,0.00,250.00,VWS V14.01,2013-03-19 13:15:00,
2013-03-19 09:17:00,45.1,33.7,29.90,NW,304,13.0,23.0,64,0.00,,SKC,0.00,285.00,VWS V14.01,2013-03-19 13:17:00,
2013-03-19 09:18:00,45.1,32.9,29.90,WSW,252,10.0,23.0,62,0.00,,SKC,0.00,287.00,VWS V14.01,2013-03-19 13:18:00,
2013-03-19 09:20:00,45.2,32.2,29.90,West,279,13.0,23.0,60,0.00,,SKC,0.00,297.00,VWS V14.01,2013-03-19 13:20:00,
2013-03-19 09:22:00,45.3,32.2,29.90,West,265,16.0,23.0,60,0.00,,SKC,0.00,295.00,VWS V14.01,2013-03-19 13:22:00,
2013-03-19 09:23:00,45.3,31.8,29.90,WNW,285,6.0,23.0,59,0.00,,SKC,0.00,302.00,VWS V14.01,2013-03-19 13:23:00,
2013-03-19 09:25:00,45.4,32.8,29.90,NNW,340,18.0,23.0,61,0.00,,SKC,0.00,308.00,VWS V14.01,2013-03-19 13:25:00,
2013-03-19 09:28:00,45.5,32.4,29.90,West,277,6.0,23.0,60,0.00,,SKC,0.00,316.00,VWS V14.01,2013-03-19 13:28:00,
2013-03-19 09:29:00,45.5,32.4,29.90,NW,311,6.0,23.0,60,0.00,,SKC,0.00,318.00,VWS V14.01,2013-03-19 13:29:00,
2013-03-19 09:30:00,45.5,32.4,29.90,West,275,6.0,23.0,60,0.00,,SKC,0.00,322.00,VWS V14.01,2013-03-19 13:30:00,
2013-03-19 09:33:00,45.8,31.9,29.90,WNW,286,8.0,17.0,58,0.00,,SKC,0.00,338.00,VWS V14.01,2013-03-19 13:33:00,
2013-03-19 09:34:00,45.9,32.0,29.90,WNW,302,20.0,20.0,58,0.00,,SKC,0.00,338.00,VWS V14.01,2013-03-19 13:34:00,
2013-03-19 09:35:00,45.9,32.0,29.90,NNW,327,5.0,20.0,58,0.00,,SKC,0.00,346.00,VWS V14.01,2013-03-19 13:35:00,
2013-03-19 09:39:00,46.1,29.9,29.89,SW,232,13.0,27.0,53,0.00,,SKC,0.00,360.00,VWS V14.01,2013-03-19 13:39:00,
2013-03-19 09:40:00,46.1,29.9,29.89,West,276,23.0,27.0,53,0.00,,SKC,0.00,371.00,VWS V14.01,2013-03-19 13:40:00,
2013-03-19 09:41:00,46.2,30.0,29.90,NW,309,3.0,27.0,53,0.00,,SKC,0.00,371.00,VWS V14.01,2013-03-19 13:41:00,
2013-03-19 09:44:00,46.3,30.1,29.89,West,279,10.0,27.0,53,0.00,,SKC,0.00,381.00,VWS V14.01,2013-03-19 13:44:00,
2013-03-19 09:45:00,46.4,30.2,29.90,NW,304,9.0,27.0,53,0.00,,SKC,0.00,383.00,VWS V14.01,2013-03-19 13:45:00,
2013-03-19 09:46:00,46.5,30.8,29.90,WNW,298,6.0,27.0,54,0.00,,SKC,0.00,390.00,VWS V14.01,2013-03-19 13:46:00,
2013-03-19 09:49:00,46.5,31.2,29.90,NNW,337,14.0,27.0,55,0.00,,SKC,0.00,397.00,VWS V14.01,2013-03-19 13:49:00,
2013-03-19 09:50:00,46.5,31.7,29.90,West,271,11.0,27.0,56,0.00,,SKC,0.00,403.00,VWS V14.01,2013-03-19 13:50:00,
2013-03-19 09:51:00,46.6,30.9,29.90,West,269,14.0,27.0,54,0.00,,SKC,0.00,404.00,VWS V14.01,2013-03-19 13:51:00,
2013-03-19 09:54:00,46.7,29.5,29.90,WSW,256,10.0,27.0,51,0.00,,SKC,0.00,418.00,VWS V14.01,2013-03-19 13:54:00,
2013-03-19 09:55:00,46.7,29.5,29.89,WSW,241,7.0,27.0,51,0.00,,SKC,0.00,422.00,VWS V14.01,2013-03-19 13:55:00,
2013-03-19 09:57:00,46.8,30.1,29.89,NW,304,8.0,27.0,52,0.00,,SKC,0.00,429.00,VWS V14.01,2013-03-19 13:57:00,
2013-03-19 09:59:00,47.0,29.3,29.89,WNW,295,10.0,27.0,50,0.00,,SKC,0.00,438.00,VWS V14.01,2013-03-19 13:59:00,
2013-03-19 10:00:00,47.0,29.8,29.89,WSW,244,7.0,27.0,51,0.00,,SKC,0.00,441.00,VWS V14.01,2013-03-19 14:00:00,
2013-03-19 10:02:00,47.2,30.5,29.89,NW,320,15.0,15.0,52,0.00,,SKC,0.00,445.00,VWS V14.01,2013-03-19 14:02:00,
2013-03-19 10:04:00,47.3,30.6,29.89,WNW,288,15.0,20.0,52,0.00,,SKC,0.00,452.00,VWS V14.01,2013-03-19 14:04:00,
2013-03-19 10:05:00,47.4,28.7,29.88,North,349,13.0,35.0,48,0.00,,SKC,0.00,459.00,VWS V14.01,2013-03-19 14:05:00,
2013-03-19 10:07:00,47.6,28.9,29.88,West,267,13.0,35.0,48,0.00,,SKC,0.00,469.00,VWS V14.01,2013-03-19 14:07:00,
2013-03-19 10:09:00,47.7,29.0,29.89,West,265,13.0,35.0,48,0.00,,SKC,0.00,475.00,VWS V14.01,2013-03-19 14:09:00,
2013-03-19 10:10:00,47.8,29.6,29.89,West,281,9.0,35.0,49,0.00,,SKC,0.00,476.00,VWS V14.01,2013-03-19 14:10:00,
2013-03-19 10:12:00,47.9,28.7,29.89,NW,325,7.0,35.0,47,0.00,,SKC,0.00,483.00,VWS V14.01,2013-03-19 14:12:00,
2013-03-19 10:13:00,47.9,29.7,29.89,NNW,327,6.0,35.0,49,0.00,,SKC,0.00,485.00,VWS V14.01,2013-03-19 14:13:00,
2013-03-19 10:14:00,48.1,29.9,29.89,NW,306,20.0,35.0,49,0.00,,SKC,0.00,490.00,VWS V14.01,2013-03-19 14:14:00,
2013-03-19 10:15:00,48.1,27.8,29.89,West,273,11.0,35.0,45,0.00,,SKC,0.00,494.00,VWS V14.01,2013-03-19 14:15:00,
2013-03-19 10:18:00,48.2,28.4,29.89,West,261,7.0,35.0,46,0.00,,SKC,0.00,501.00,VWS V14.01,2013-03-19 14:18:00,
2013-03-19 10:19:00,48.3,29.0,29.88,NNW,329,16.0,35.0,47,0.00,,SKC,0.00,508.00,VWS V14.01,2013-03-19 14:19:00,
2013-03-19 10:20:00,48.3,27.4,29.89,NNW,328,23.0,35.0,44,0.00,,SKC,0.00,517.00,VWS V14.01,2013-03-19 14:20:00,
2013-03-19 10:23:00,48.5,28.1,29.89,North,355,17.0,35.0,45,0.00,,SKC,0.00,524.00,VWS V14.01,2013-03-19 14:23:00,
2013-03-19 10:24:00,48.5,28.1,29.88,WNW,302,24.0,35.0,45,0.00,,SKC,0.00,527.00,VWS V14.01,2013-03-19 14:24:00,
2013-03-19 10:25:00,48.5,26.5,29.89,WNW,288,15.0,35.0,42,0.00,,SKC,0.00,533.00,VWS V14.01,2013-03-19 14:25:00,
2013-03-19 10:28:00,48.6,27.1,29.89,West,261,17.0,35.0,43,0.00,,SKC,0.00,540.00,VWS V14.01,2013-03-19 14:28:00,
2013-03-19 10:29:00,48.5,27.0,29.89,NW,322,9.0,35.0,43,0.00,,SKC,0.00,540.00,VWS V14.01,2013-03-19 14:29:00,
2013-03-19 10:30:00,48.5,28.1,29.89,West,266,3.0,35.0,45,0.00,,SKC,0.00,545.00,VWS V14.01,2013-03-19 14:30:00,
2013-03-19 10:33:00,48.7,27.8,29.88,West,279,12.0,23.0,44,0.00,,SKC,0.00,559.00,VWS V14.01,2013-03-19 14:33:00,
2013-03-19 10:34:00,48.7,27.2,29.88,WNW,288,13.0,23.0,43,0.00,,SKC,0.00,559.00,VWS V14.01,2013-03-19 14:34:00,
2013-03-19 10:35:00,48.7,27.2,29.89,WSW,258,18.0,23.0,43,0.00,,SKC,0.00,557.00,VWS V14.01,2013-03-19 14:35:00,
2013-03-19 10:38:00,49.0,28.6,29.89,WNW,290,6.0,25.0,45,0.00,,SKC,0.00,570.00,VWS V14.01,2013-03-19 14:38:00,
2013-03-19 10:39:00,49.0,28.0,29.89,NW,319,11.0,25.0,44,0.00,,SKC,0.00,570.00,VWS V14.01,2013-03-19 14:39:00,
2013-03-19 10:40:00,49.0,28.6,29.90,WNW,291,7.0,25.0,45,0.00,,SKC,0.00,573.00,VWS V14.01,2013-03-19 14:40:00,
2013-03-19 10:41:00,49.0,28.6,29.90,WNW,298,15.0,25.0,45,0.00,,SKC,0.00,577.00,VWS V14.01,2013-03-19 14:41:00,
2013-03-19 10:43:00,49.1,28.7,29.90,WNW,302,21.0,25.0,45,0.00,,SKC,0.00,584.00,VWS V14.01,2013-03-19 14:43:00,
2013-03-19 10:44:00,49.1,28.7,29.89,NW,313,21.0,25.0,45,0.00,,SKC,0.00,585.00,VWS V14.01,2013-03-19 14:44:00,
2013-03-19 10:45:00,49.1,29.2,29.90,West,280,12.0,25.0,46,0.00,,SKC,0.00,591.00,VWS V14.01,2013-03-19 14:45:00,
2013-03-19 10:46:00,49.1,29.8,29.89,WNW,298,17.0,25.0,47,0.00,,SKC,0.00,591.00,VWS V14.01,2013-03-19 14:46:00,
2013-03-19 10:48:00,49.1,30.3,29.90,SW,225,19.0,27.0,48,0.00,,SKC,0.00,598.00,VWS V14.01,2013-03-19 14:48:00,
2013-03-19 10:49:00,49.1,29.2,29.89,NW,309,8.0,27.0,46,0.00,,SKC,0.00,603.00,VWS V14.01,2013-03-19 14:49:00,
2013-03-19 10:51:00,49.1,29.2,29.89,WNW,289,12.0,27.0,46,0.00,,SKC,0.00,606.00,VWS V14.01,2013-03-19 14:51:00,
2013-03-19 10:53:00,49.1,29.2,29.90,NW,326,16.0,27.0,46,0.00,,SKC,0.00,615.00,VWS V14.01,2013-03-19 14:53:00,
2013-03-19 10:54:00,49.2,29.9,29.90,NNW,339,33.0,33.0,47,0.00,,SKC,0.00,612.00,VWS V14.01,2013-03-19 14:54:00,
2013-03-19 10:56:00,49.2,28.2,29.90,North,5,11.0,33.0,44,0.00,,SKC,0.00,621.00,VWS V14.01,2013-03-19 14:56:00,
2013-03-19 10:59:00,49.4,29.5,29.90,WNW,303,11.0,33.0,46,0.00,,SKC,0.00,629.00,VWS V14.01,2013-03-19 14:59:00,
2013-03-19 11:01:00,49.5,28.5,29.90,WNW,283,13.0,18.0,44,0.00,,SKC,0.00,636.00,VWS V14.01,2013-03-19 15:01:00,
2013-03-19 11:02:00,49.5,28.5,29.90,WSW,246,10.0,18.0,44,0.00,,SKC,0.00,635.00,VWS V14.01,2013-03-19 15:02:00,
2013-03-19 11:04:00,49.6,28.6,29.90,NNW,342,22.0,22.0,44,0.00,,SKC,0.00,638.00,VWS V14.01,2013-03-19 15:04:00,
2013-03-19 11:06:00,49.7,28.7,29.90,NW,305,6.0,24.0,44,0.00,,SKC,0.00,652.00,VWS V14.01,2013-03-19 15:06:00,
2013-03-19 11:07:00,49.7,29.8,29.90,WNW,292,10.0,24.0,46,0.00,,SKC,0.00,650.00,VWS V14.01,2013-03-19 15:07:00,
2013-03-19 11:09:00,49.7,28.7,29.90,WNW,291,11.0,27.0,44,0.00,,SKC,0.00,654.00,VWS V14.01,2013-03-19 15:09:00,
2013-03-19 11:10:00,49.7,28.7,29.90,WNW,284,17.0,27.0,44,0.00,,SKC,0.00,657.00,VWS V14.01,2013-03-19 15:10:00,
2013-03-19 11:12:00,49.4,28.4,29.90,WNW,298,25.0,27.0,44,0.00,,SKC,0.00,663.00,VWS V14.01,2013-03-19 15:12:00,
2013-03-19 11:14:00,49.3,29.4,29.90,WNW,283,9.0,27.0,46,0.00,,SKC,0.00,664.00,VWS V14.01,2013-03-19 15:14:00,
2013-03-19 11:15:00,49.4,29.5,29.90,West,271,13.0,27.0,46,0.00,,SKC,0.00,670.00,VWS V14.01,2013-03-19 15:15:00,
2013-03-19 11:17:00,49.5,30.6,29.90,West,266,14.0,27.0,48,0.00,,SKC,0.00,670.00,VWS V14.01,2013-03-19 15:17:00,
2013-03-19 11:18:00,49.5,31.1,29.90,West,280,20.0,27.0,49,0.00,,SKC,0.00,670.00,VWS V14.01,2013-03-19 15:18:00,
2013-03-19 11:19:00,49.5,30.6,29.90,WSW,256,16.0,27.0,48,0.00,,SKC,0.00,679.00,VWS V14.01,2013-03-19 15:19:00,
2013-03-19 11:20:00,49.5,31.1,29.90,WSW,250,15.0,27.0,49,0.00,,SKC,0.00,682.00,VWS V14.01,2013-03-19 15:20:00,
2013-03-19 11:22:00,49.3,30.5,29.90,WSW,244,8.0,27.0,48,0.00,,SKC,0.00,689.00,VWS V14.01,2013-03-19 15:22:00,
2013-03-19 11:23:00,49.4,31.1,29.91,WNW,292,12.0,27.0,49,0.00,,SKC,0.00,689.00,VWS V14.01,2013-03-19 15:23:00,
2013-03-19 11:24:00,49.4,30.5,29.90,West,266,15.0,27.0,48,0.00,,SKC,0.00,696.00,VWS V14.01,2013-03-19 15:24:00,
2013-03-19 11:25:00,49.4,31.1,29.90,North,360,7.0,27.0,49,0.00,,SKC,0.00,693.00,VWS V14.01,2013-03-19 15:25:00,
2013-03-19 11:27:00,49.6,30.7,29.90,WSW,250,11.0,27.0,48,0.00,,SKC,0.00,700.00,VWS V14.01,2013-03-19 15:27:00,
2013-03-19 11:28:00,49.5,29.6,29.90,WNW,283,26.0,27.0,46,0.00,,SKC,0.00,700.00,VWS V14.01,2013-03-19 15:28:00,
2013-03-19 11:29:00,49.5,29.6,29.90,West,277,6.0,27.0,46,0.00,,SKC,0.00,710.00,VWS V14.01,2013-03-19 15:29:00,
2013-03-19 11:30:00,49.4,30.0,29.91,SW,229,8.0,27.0,47,0.00,,SKC,0.00,707.00,VWS V14.01,2013-03-19 15:30:00,
2013-03-19 11:33:00,49.3,29.4,29.91,WNW,286,15.0,22.0,46,0.00,,SKC,0.00,708.00,VWS V14.01,2013-03-19 15:33:00,
2013-03-19 11:34:00,49.1,28.7,29.91,WNW,298,13.0,27.0,45,0.00,,SKC,0.00,715.00,VWS V14.01,2013-03-19 15:34:00,
2013-03-19 11:35:00,49.1,29.2,29.91,NNE,15,10.0,27.0,46,0.00,,SKC,0.00,717.00,VWS V14.01,2013-03-19 15:35:00,
2013-03-19 11:38:00,49.4,30.0,29.91,West,263,15.0,27.0,47,0.00,,SKC,0.00,721.00,VWS V14.01,2013-03-19 15:38:00,
2013-03-19 11:39:00,49.6,30.2,29.91,North,355,6.0,27.0,47,0.00,,SKC,0.00,728.00,VWS V14.01,2013-03-19 15:39:00,
2013-03-19 11:40:00,49.7,30.3,29.90,West,281,15.0,27.0,47,0.00,,SKC,0.00,726.00,VWS V14.01,2013-03-19 15:40:00,
2013-03-19 11:43:00,50.1,31.7,29.91,WNW,294,12.0,27.0,49,0.00,,SKC,0.00,733.00,VWS V14.01,2013-03-19 15:43:00,
2013-03-19 11:44:00,50.3,32.4,29.91,WNW,285,24.0,27.0,50,0.00,,SKC,0.00,735.00,VWS V14.01,2013-03-19 15:44:00,
2013-03-19 11:45:00,50.2,29.1,29.91,NNW,329,17.0,27.0,44,0.00,,SKC,0.00,740.00,VWS V14.01,2013-03-19 15:45:00,
2013-03-19 11:48:00,50.1,30.1,29.92,WSW,256,18.0,27.0,46,0.00,,SKC,0.00,742.00,VWS V14.01,2013-03-19 15:48:00,
2013-03-19 11:49:00,50.1,29.6,29.92,West,273,12.0,27.0,45,0.00,,SKC,0.00,747.00,VWS V14.01,2013-03-19 15:49:00,
2013-03-19 11:50:00,50.1,29.6,29.92,West,277,20.0,27.0,45,0.00,,SKC,0.00,745.00,VWS V14.01,2013-03-19 15:50:00,
2013-03-19 11:53:00,50.1,28.5,29.92,WSW,248,14.0,27.0,43,0.00,,SKC,0.00,754.00,VWS V14.01,2013-03-19 15:53:00,
2013-03-19 11:54:00,50.0,28.4,29.92,West,275,13.0,27.0,43,0.00,,SKC,0.00,752.00,VWS V14.01,2013-03-19 15:54:00,
2013-03-19 11:55:00,50.1,28.5,29.92,WNW,289,11.0,27.0,43,0.00,,SKC,0.00,756.00,VWS V14.01,2013-03-19 15:55:00,
2013-03-19 11:56:00,50.0,28.4,29.92,West,270,9.0,27.0,43,0.00,,SKC,0.00,756.00,VWS V14.01,2013-03-19 15:56:00,
2013-03-19 11:58:00,50.4,29.9,29.92,NW,323,11.0,27.0,45,0.00,,SKC,0.00,759.00,VWS V14.01,2013-03-19 15:58:00,
2013-03-19 11:59:00,50.5,29.4,29.92,NNW,338,7.0,27.0,44,0.00,,SKC,0.00,759.00,VWS V14.01,2013-03-19 15:59:00,
2013-03-19 12:00:00,50.8,30.8,29.92,West,269,16.0,27.0,46,0.00,,SKC,0.00,765.00,VWS V14.01,2013-03-19 16:00:00,
2013-03-19 12:01:00,50.9,29.8,29.92,West,264,19.0,19.0,44,0.00,,SKC,0.00,765.00,VWS V14.01,2013-03-19 16:01:00,
2013-03-19 12:03:00,50.9,29.2,29.92,West,279,9.0,19.0,43,0.00,,SKC,0.00,772.00,VWS V14.01,2013-03-19 16:03:00,
2013-03-19 12:04:00,51.0,30.4,29.92,NW,313,6.0,19.0,45,0.00,,SKC,0.00,773.00,VWS V14.01,2013-03-19 16:04:00,
2013-03-19 12:05:00,51.1,28.8,29.92,NW,315,16.0,27.0,42,0.00,,SKC,0.00,772.00,VWS V14.01,2013-03-19 16:05:00,
2013-03-19 12:06:00,51.1,28.8,29.92,NW,311,13.0,27.0,42,0.00,,SKC,0.00,772.00,VWS V14.01,2013-03-19 16:06:00,
2013-03-19 12:08:00,51.2,30.0,29.92,NNW,336,14.0,27.0,44,0.00,,SKC,0.00,780.00,VWS V14.01,2013-03-19 16:08:00,
2013-03-19 12:09:00,51.2,28.9,29.92,NNW,327,17.0,27.0,42,0.00,,SKC,0.00,782.00,VWS V14.01,2013-03-19 16:09:00,
2013-03-19 12:10:00,51.3,29.0,29.92,NW,307,9.0,27.0,42,0.00,,SKC,0.00,782.00,VWS V14.01,2013-03-19 16:10:00,
2013-03-19 12:12:00,51.4,28.5,29.92,NW,322,6.0,27.0,41,0.00,,SKC,0.00,788.00,VWS V14.01,2013-03-19 16:12:00,
2013-03-19 12:13:00,51.3,28.4,29.92,West,267,18.0,27.0,41,0.00,,SKC,0.00,788.00,VWS V14.01,2013-03-19 16:13:00,
2013-03-19 12:14:00,51.2,28.9,29.92,NW,317,13.0,27.0,42,0.00,,SKC,0.00,789.00,VWS V14.01,2013-03-19 16:14:00,
2013-03-19 12:15:00,51.1,29.4,29.92,West,275,6.0,27.0,43,0.00,,SKC,0.00,791.00,VWS V14.01,2013-03-19 16:15:00,
2013-03-19 12:17:00,51.2,29.5,29.92,WNW,284,18.0,27.0,43,0.00,,SKC,0.00,795.00,VWS V14.01,2013-03-19 16:17:00,
2013-03-19 12:19:00,51.1,28.8,29.92,West,261,16.0,27.0,42,0.00,,SKC,0.00,795.00,VWS V14.01,2013-03-19 16:19:00,
2013-03-19 12:20:00,50.8,28.0,29.92,West,273,15.0,27.0,41,0.00,,SKC,0.00,800.00,VWS V14.01,2013-03-19 16:20:00,
2013-03-19 12:23:00,50.8,28.0,29.92,WNW,286,16.0,27.0,41,0.00,,SKC,0.00,802.00,VWS V14.01,2013-03-19 16:23:00,
2013-03-19 12:24:00,50.8,28.0,29.92,NW,317,11.0,27.0,41,0.00,,SKC,0.00,803.00,VWS V14.01,2013-03-19 16:24:00,
2013-03-19 12:26:00,51.1,29.4,29.92,WNW,297,11.0,27.0,43,0.00,,SKC,0.00,805.00,VWS V14.01,2013-03-19 16:26:00,
2013-03-19 12:28:00,51.3,29.0,29.92,NNW,336,13.0,27.0,42,0.00,,SKC,0.00,809.00,VWS V14.01,2013-03-19 16:28:00,
2013-03-19 12:29:00,51.4,29.7,29.92,WSW,243,14.0,27.0,43,0.00,,SKC,0.00,810.00,VWS V14.01,2013-03-19 16:29:00,
2013-03-19 12:30:00,51.5,28.6,29.92,NW,304,9.0,27.0,41,0.00,,SKC,0.00,812.00,VWS V14.01,2013-03-19 16:30:00,
2013-03-19 12:31:00,51.5,29.2,29.92,WNW,283,12.0,12.0,42,0.00,,SKC,0.00,814.00,VWS V14.01,2013-03-19 16:31:00,
2013-03-19 12:33:00,51.8,29.5,29.92,NW,325,6.0,16.0,42,0.00,,SKC,0.00,816.00,VWS V14.01,2013-03-19 16:33:00,
2013-03-19 12:34:00,52.1,30.3,29.93,West,266,11.0,16.0,43,0.00,,SKC,0.00,819.00,VWS V14.01,2013-03-19 16:34:00,
2013-03-19 12:35:00,52.3,30.5,29.93,NW,320,17.0,17.0,43,0.00,,SKC,0.00,819.00,VWS V14.01,2013-03-19 16:35:00,
2013-03-19 12:36:00,52.4,28.8,29.93,WNW,283,13.0,18.0,40,0.00,,SKC,0.00,819.00,VWS V14.01,2013-03-19 16:36:00,
2013-03-19 12:38:00,52.1,27.9,29.92,WNW,300,11.0,18.0,39,0.00,,SKC,0.00,821.00,VWS V14.01,2013-03-19 16:38:00,
2013-03-19 12:39:00,51.9,28.4,29.92,WNW,294,15.0,21.0,40,0.00,,SKC,0.00,823.00,VWS V14.01,2013-03-19 16:39:00,
2013-03-19 12:40:00,51.9,28.4,29.92,West,278,11.0,21.0,40,0.00,,SKC,0.00,830.00,VWS V14.01,2013-03-19 16:40:00,
2013-03-19 12:41:00,52.0,29.6,29.92,West,259,11.0,21.0,42,0.00,,SKC,0.00,828.00,VWS V14.01,2013-03-19 16:41:00,
2013-03-19 12:43:00,52.1,29.1,29.92,WNW,298,12.0,21.0,41,0.00,,SKC,0.00,828.00,VWS V14.01,2013-03-19 16:43:00,
2013-03-19 12:44:00,52.1,28.5,29.92,West,271,7.0,21.0,40,0.00,,SKC,0.00,831.00,VWS V14.01,2013-03-19 16:44:00,
2013-03-19 12:45:00,52.1,28.5,29.92,WSW,248,5.0,21.0,40,0.00,,SKC,0.00,831.00,VWS V14.01,2013-03-19 16:45:00,
2013-03-19 12:47:00,52.1,28.5,29.93,NW,304,11.0,21.0,40,0.00,,SKC,0.00,828.00,VWS V14.01,2013-03-19 16:47:00,
2013-03-19 12:48:00,52.1,28.5,29.93,NNW,330,9.0,21.0,40,0.00,,SKC,0.00,830.00,VWS V14.01,2013-03-19 16:48:00,
2013-03-19 12:49:00,52.3,29.9,29.93,West,273,11.0,21.0,42,0.00,,SKC,0.00,831.00,VWS V14.01,2013-03-19 16:49:00,
2013-03-19 12:50:00,52.4,30.0,29.93,West,277,15.0,21.0,42,0.00,,SKC,0.00,831.00,VWS V14.01,2013-03-19 16:50:00,
2013-03-19 12:52:00,52.6,30.8,29.93,West,263,10.0,21.0,43,0.00,,SKC,0.00,835.00,VWS V14.01,2013-03-19 16:52:00,
2013-03-19 12:53:00,52.7,30.9,29.93,WSW,255,5.0,21.0,43,0.00,,SKC,0.00,835.00,VWS V14.01,2013-03-19 16:53:00,
2013-03-19 12:55:00,52.6,30.2,29.93,WSW,248,18.0,22.0,42,0.00,,SKC,0.00,840.00,VWS V14.01,2013-03-19 16:55:00,
2013-03-19 12:56:00,52.4,28.2,29.92,West,266,14.0,22.0,39,0.00,,SKC,0.00,840.00,VWS V14.01,2013-03-19 16:56:00,
2013-03-19 12:57:00,52.1,29.7,29.93,WNW,294,11.0,22.0,42,0.00,,SKC,0.00,838.00,VWS V14.01,2013-03-19 16:57:00,
2013-03-19 12:58:00,52.2,29.8,29.93,WSW,255,13.0,22.0,42,0.00,,SKC,0.00,840.00,VWS V14.01,2013-03-19 16:58:00,
2013-03-19 13:00:00,52.4,30.0,29.93,West,273,10.0,22.0,42,0.00,,SKC,0.00,840.00,VWS V14.01,2013-03-19 17:00:00,
2013-03-19 13:01:00,52.6,30.2,29.93,West,265,12.0,22.0,42,0.00,,SKC,0.00,842.00,VWS V14.01,2013-03-19 17:01:00,
2013-03-19 13:02:00,52.5,29.5,29.93,SW,225,7.0,15.0,41,0.00,,SKC,0.00,846.00,VWS V14.01,2013-03-19 17:02:00,
2013-03-19 13:04:00,52.4,29.4,29.93,WSW,244,11.0,15.0,41,0.00,,SKC,0.00,844.00,VWS V14.01,2013-03-19 17:04:00,
2013-03-19 13:05:00,52.5,30.1,29.93,West,260,8.0,15.0,42,0.00,,SKC,0.00,844.00,VWS V14.01,2013-03-19 17:05:00,
2013-03-19 13:06:00,52.7,29.7,29.93,WNW,302,4.0,15.0,41,0.00,,SKC,0.00,844.00,VWS V14.01,2013-03-19 17:06:00,
2013-03-19 13:08:00,52.9,29.2,29.93,WSW,244,12.0,18.0,40,0.00,,SKC,0.00,844.00,VWS V14.01,2013-03-19 17:08:00,
2013-03-19 13:09:00,53.0,28.7,29.93,West,261,10.0,18.0,39,0.00,,SKC,0.00,844.00,VWS V14.01,2013-03-19 17:09:00,
2013-03-19 13:10:00,52.9,28.0,29.93,West,271,7.0,18.0,38,0.00,,SKC,0.00,846.00,VWS V14.01,2013-03-19 17:10:00,
2013-03-19 13:11:00,52.7,27.2,29.93,West,265,12.0,18.0,37,0.00,,SKC,0.00,847.00,VWS V14.01,2013-03-19 17:11:00,
2013-03-19 13:14:00,52.7,27.8,29.93,SW,233,6.0,18.0,38,0.00,,SKC,0.00,847.00,VWS V14.01,2013-03-19 17:14:00,
2013-03-19 13:15:00,52.8,27.3,29.92,NW,321,9.0,18.0,37,0.00,,SKC,0.00,849.00,VWS V14.01,2013-03-19 17:15:00,
2013-03-19 13:16:00,53.1,28.2,29.92,WNW,284,11.0,18.0,38,0.00,,SKC,0.00,847.00,VWS V14.01,2013-03-19 17:16:00,
2013-03-19 13:19:00,53.3,27.7,29.92,SW,236,10.0,18.0,37,0.00,,SKC,0.00,847.00,VWS V14.01,2013-03-19 17:19:00,
2013-03-19 13:22:00,53.2,28.3,29.92,WSW,257,7.0,18.0,38,0.00,,SKC,0.00,847.00,VWS V14.01,2013-03-19 17:22:00,
2013-03-19 13:24:00,53.3,28.4,29.92,West,280,8.0,18.0,38,0.00,,SKC,0.00,851.00,VWS V14.01,2013-03-19 17:24:00,
2013-03-19 13:25:00,53.2,28.3,29.92,West,276,10.0,18.0,38,0.00,,SKC,0.00,849.00,VWS V14.01,2013-03-19 17:25:00,
2013-03-19 13:27:00,53.5,29.8,29.92,SW,234,9.0,18.0,40,0.00,,SKC,0.00,851.00,VWS V14.01,2013-03-19 17:27:00,
2013-03-19 13:29:00,53.5,27.9,29.92,West,268,12.0,18.0,37,0.00,,SKC,0.00,851.00,VWS V14.01,2013-03-19 17:29:00,
2013-03-19 13:30:00,53.3,27.0,29.92,WSW,256,14.0,18.0,36,0.00,,SKC,0.00,853.00,VWS V14.01,2013-03-19 17:30:00,
2013-03-19 13:32:00,53.1,27.5,29.92,SW,229,5.0,10.0,37,0.00,,SKC,0.00,849.00,VWS V14.01,2013-03-19 17:32:00,
2013-03-19 13:34:00,53.5,29.2,29.92,WSW,239,13.0,13.0,39,0.00,,SKC,0.00,849.00,VWS V14.01,2013-03-19 17:34:00,
2013-03-19 13:35:00,53.6,28.0,29.92,SSW,205,14.0,15.0,37,0.00,,SKC,0.00,851.00,VWS V14.01,2013-03-19 17:35:00,
2013-03-19 13:37:00,53.0,27.4,29.92,WSW,246,4.0,17.0,37,0.00,,SKC,0.00,853.00,VWS V14.01,2013-03-19 17:37:00,
2013-03-19 13:38:00,53.1,28.8,29.92,WSW,253,4.0,17.0,39,0.00,,SKC,0.00,853.00,VWS V14.01,2013-03-19 17:38:00,
2013-03-19 13:39:00,53.7,30.0,29.92,WSW,254,5.0,17.0,40,0.00,,SKC,0.00,853.00,VWS V14.01,2013-03-19 17:39:00,
2013-03-19 13:40:00,54.0,30.2,29.92,WSW,248,5.0,17.0,40,0.00,,SKC,0.00,853.00,VWS V14.01,2013-03-19 17:40:00,
2013-03-19 13:42:00,54.2,29.2,29.91,West,269,6.0,17.0,38,0.00,,SKC,0.00,853.00,VWS V14.01,2013-03-19 17:42:00,
2013-03-19 13:43:00,54.3,29.2,29.91,SW,227,3.0,17.0,38,0.00,,SKC,0.00,853.00,VWS V14.01,2013-03-19 17:43:00,
2013-03-19 13:45:00,54.5,28.8,29.91,West,268,5.0,17.0,37,0.00,,SKC,0.00,853.00,VWS V14.01,2013-03-19 17:45:00,
2013-03-19 13:47:00,54.7,27.6,29.91,SW,233,7.0,17.0,35,0.00,,SKC,0.00,853.00,VWS V14.01,2013-03-19 17:47:00,
2013-03-19 13:48:00,54.6,27.5,29.90,SSW,211,8.0,17.0,35,0.00,,SKC,0.00,853.00,VWS V14.01,2013-03-19 17:48:00,
2013-03-19 13:50:00,54.7,27.6,29.90,WSW,237,11.0,17.0,35,0.00,,SKC,0.00,853.00,VWS V14.01,2013-03-19 17:50:00,
2013-03-19 13:52:00,54.4,28.0,29.90,SW,223,11.0,19.0,36,0.00,,SKC,0.00,853.00,VWS V14.01,2013-03-19 17:52:00,
2013-03-19 13:53:00,54.4,26.6,29.90,WSW,237,9.0,19.0,34,0.00,,SKC,0.00,853.00,VWS V14.01,2013-03-19 17:53:00,
2013-03-19 13:55:00,54.5,26.7,29.90,SW,227,9.0,19.0,34,0.00,,SKC,0.00,851.00,VWS V14.01,2013-03-19 17:55:00,
2013-03-19 13:58:00,54.4,25.9,29.90,SSW,205,10.0,19.0,33,0.00,,SKC,0.00,851.00,VWS V14.01,2013-03-19 17:58:00,
2013-03-19 14:00:00,54.8,27.7,29.90,West,271,12.0,19.0,35,0.00,,SKC,0.00,851.00,VWS V14.01,2013-03-19 18:00:00,
2013-03-19 14:01:00,54.8,27.0,29.90,West,265,10.0,19.0,34,0.00,,SKC,0.00,851.00,VWS V14.01,2013-03-19 18:01:00,
2013-03-19 14:03:00,54.8,26.3,29.90,SW,226,9.0,19.0,33,0.00,,SKC,0.00,849.00,VWS V14.01,2013-03-19 18:03:00,
2013-03-19 14:05:00,54.5,25.3,29.89,WSW,256,10.0,19.0,32,0.00,,SKC,0.00,851.00,VWS V14.01,2013-03-19 18:05:00,
2013-03-19 14:07:00,54.6,26.1,29.89,SW,223,11.0,19.0,33,0.00,,SKC,0.00,849.00,VWS V14.01,2013-03-19 18:07:00,
2013-03-19 14:08:00,54.7,26.2,29.90,WSW,247,10.0,19.0,33,0.00,,SKC,0.00,849.00,VWS V14.01,2013-03-19 18:08:00,
2013-03-19 14:09:00,54.8,26.3,29.90,SW,219,18.0,19.0,33,0.00,,SKC,0.00,851.00,VWS V14.01,2013-03-19 18:09:00,
2013-03-19 14:11:00,55.0,25.7,29.90,West,279,7.0,19.0,32,0.00,,SKC,0.00,849.00,VWS V14.01,2013-03-19 18:11:00,
2013-03-19 14:12:00,55.3,26.0,29.90,NE,36,6.0,19.0,32,0.00,,SKC,0.00,849.00,VWS V14.01,2013-03-19 18:12:00,
2013-03-19 14:13:00,55.4,24.5,29.90,SW,234,8.0,19.0,30,0.00,,SKC,0.00,847.00,VWS V14.01,2013-03-19 18:13:00,
2013-03-19 14:14:00,55.3,24.4,29.90,SW,219,14.0,19.0,30,0.00,,SKC,0.00,847.00,VWS V14.01,2013-03-19 18:14:00,
2013-03-19 14:16:00,55.0,24.2,29.89,West,269,16.0,19.0,30,0.00,,SKC,0.00,844.00,VWS V14.01,2013-03-19 18:16:00,
2013-03-19 14:17:00,55.2,25.9,29.90,SSW,213,16.0,19.0,32,0.00,,SKC,0.00,844.00,VWS V14.01,2013-03-19 18:17:00,
2013-03-19 14:18:00,55.3,24.4,29.89,WSW,246,12.0,19.0,30,0.00,,SKC,0.00,842.00,VWS V14.01,2013-03-19 18:18:00,
2013-03-19 14:19:00,55.3,24.4,29.89,SW,234,10.0,19.0,30,0.00,,SKC,0.00,842.00,VWS V14.01,2013-03-19 18:19:00,
2013-03-19 14:21:00,55.2,24.3,29.89,SW,219,12.0,22.0,30,0.00,,SKC,0.00,842.00,VWS V14.01,2013-03-19 18:21:00,
2013-03-19 14:23:00,55.2,25.9,29.89,West,268,9.0,22.0,32,0.00,,SKC,0.00,842.00,VWS V14.01,2013-03-19 18:23:00,
2013-03-19 14:24:00,55.5,24.6,29.89,WSW,248,5.0,22.0,30,0.00,,SKC,0.00,842.00,VWS V14.01,2013-03-19 18:24:00,
2013-03-19 14:26:00,55.7,25.5,29.88,SSW,200,7.0,22.0,31,0.00,,SKC,0.00,838.00,VWS V14.01,2013-03-19 18:26:00,
2013-03-19 14:28:00,55.7,24.8,29.88,SSW,200,8.0,22.0,30,0.00,,SKC,0.00,837.00,VWS V14.01,2013-03-19 18:28:00,
2013-03-19 14:29:00,55.9,24.9,29.88,SSW,213,7.0,22.0,30,0.00,,SKC,0.00,837.00,VWS V14.01,2013-03-19 18:29:00,
2013-03-19 14:32:00,56.0,25.0,29.88,West,273,6.0,10.0,30,0.00,,SKC,0.00,838.00,VWS V14.01,2013-03-19 18:32:00,
2013-03-19 14:33:00,56.2,25.2,29.88,West,263,15.0,15.0,30,0.00,,SKC,0.00,837.00,VWS V14.01,2013-03-19 18:33:00,
2013-03-19 14:34:00,56.2,24.4,29.88,WSW,251,11.0,15.0,29,0.00,,SKC,0.00,835.00,VWS V14.01,2013-03-19 18:34:00,
2013-03-19 14:38:00,56.3,25.3,29.88,WSW,255,5.0,16.0,30,0.00,,SKC,0.00,830.00,VWS V14.01,2013-03-19 18:38:00,
2013-03-19 14:39:00,56.5,25.5,29.88,West,274,11.0,16.0,30,0.00,,SKC,0.00,828.00,VWS V14.01,2013-03-19 18:39:00,
2013-03-19 14:43:00,56.7,24.8,29.88,SW,236,10.0,16.0,29,0.00,,SKC,0.00,824.00,VWS V14.01,2013-03-19 18:43:00,
2013-03-19 14:44:00,56.7,24.8,29.88,SW,235,17.0,17.0,29,0.00,,SKC,0.00,824.00,VWS V14.01,2013-03-19 18:44:00,
2013-03-19 14:45:00,56.6,24.7,29.88,West,261,11.0,17.0,29,0.00,,SKC,0.00,823.00,VWS V14.01,2013-03-19 18:45:00,
2013-03-19 14:48:00,56.1,24.3,29.87,WNW,300,13.0,18.0,29,0.00,,SKC,0.00,819.00,VWS V14.01,2013-03-19 18:48:00,
2013-03-19 14:49:00,56.1,24.3,29.87,SW,236,6.0,18.0,29,0.00,,SKC,0.00,817.00,VWS V14.01,2013-03-19 18:49:00,
2013-03-19 14:50:00,56.2,26.8,29.87,WSW,257,13.0,18.0,32,0.00,,SKC,0.00,817.00,VWS V14.01,2013-03-19 18:50:00,
2013-03-19 14:53:00,55.8,24.9,29.87,West,275,7.0,20.0,30,0.00,,SKC,0.00,812.00,VWS V14.01,2013-03-19 18:53:00,
2013-03-19 14:55:00,55.8,24.0,29.87,NW,309,5.0,20.0,29,0.00,,SKC,0.00,809.00,VWS V14.01,2013-03-19 18:55:00,
2013-03-19 14:58:00,56.4,25.4,29.87,WSW,243,9.0,20.0,30,0.00,,SKC,0.00,805.00,VWS V14.01,2013-03-19 18:58:00,
2013-03-19 15:00:00,56.6,24.7,29.87,SW,225,16.0,20.0,29,0.00,,SKC,0.00,805.00,VWS V14.01,2013-03-19 19:00:00,
2013-03-19 15:03:00,56.2,23.5,29.87,SW,225,9.0,22.0,28,0.00,,SKC,0.00,800.00,VWS V14.01,2013-03-19 19:03:00,
2013-03-19 15:05:00,56.5,24.6,29.87,SW,225,5.0,22.0,29,0.00,,SKC,0.00,800.00,VWS V14.01,2013-03-19 19:05:00,
2013-03-19 15:08:00,56.3,23.6,29.87,SW,223,21.0,22.0,28,0.00,,SKC,0.00,791.00,VWS V14.01,2013-03-19 19:08:00,
2013-03-19 15:10:00,56.2,24.4,29.87,WSW,248,9.0,22.0,29,0.00,,SKC,0.00,788.00,VWS V14.01,2013-03-19 19:10:00,
2013-03-19 15:11:00,56.3,23.6,29.87,WSW,247,9.0,22.0,28,0.00,,SKC,0.00,788.00,VWS V14.01,2013-03-19 19:11:00,
2013-03-19 15:14:00,56.9,25.8,29.87,North,5,3.0,22.0,30,0.00,,SKC,0.00,780.00,VWS V14.01,2013-03-19 19:14:00,
2013-03-19 15:15:00,57.4,24.6,29.87,WSW,239,10.0,22.0,28,0.00,,SKC,0.00,780.00,VWS V14.01,2013-03-19 19:15:00,
2013-03-19 15:16:00,57.5,23.8,29.87,West,271,12.0,22.0,27,0.00,,SKC,0.00,779.00,VWS V14.01,2013-03-19 19:16:00,
2013-03-19 15:19:00,57.7,24.0,29.87,West,263,6.0,22.0,27,0.00,,SKC,0.00,775.00,VWS V14.01,2013-03-19 19:19:00,
2013-03-19 15:20:00,57.9,25.0,29.87,WNW,294,11.0,22.0,28,0.00,,SKC,0.00,772.00,VWS V14.01,2013-03-19 19:20:00,
2013-03-19 15:21:00,58.1,24.3,29.87,NW,314,4.0,22.0,27,0.00,,SKC,0.00,772.00,VWS V14.01,2013-03-19 19:21:00,
2013-03-19 15:24:00,58.6,24.8,29.87,West,277,13.0,22.0,27,0.00,,SKC,0.00,768.00,VWS V14.01,2013-03-19 19:24:00,
2013-03-19 15:25:00,58.1,22.5,29.87,WSW,248,13.0,22.0,25,0.00,,SKC,0.00,763.00,VWS V14.01,2013-03-19 19:25:00,
2013-03-19 15:27:00,57.8,24.1,29.87,WSW,244,12.0,22.0,27,0.00,,SKC,0.00,761.00,VWS V14.01,2013-03-19 19:27:00,
2013-03-19 15:29:00,57.7,23.1,29.87,SW,232,11.0,22.0,26,0.00,,SKC,0.00,758.00,VWS V14.01,2013-03-19 19:29:00,
2013-03-19 15:30:00,57.6,23.0,29.86,NNW,328,9.0,22.0,26,0.00,,SKC,0.00,754.00,VWS V14.01,2013-03-19 19:30:00,
2013-03-19 15:31:00,57.6,23.0,29.86,West,281,12.0,22.0,26,0.00,,SKC,0.00,752.00,VWS V14.01,2013-03-19 19:31:00,
2013-03-19 15:32:00,57.7,24.0,29.87,West,262,16.0,19.0,27,0.00,,SKC,0.00,749.00,VWS V14.01,2013-03-19 19:32:00,
2013-03-19 15:34:00,57.7,23.1,29.87,SSW,213,13.0,22.0,26,0.00,,SKC,0.00,745.00,VWS V14.01,2013-03-19 19:34:00,
2013-03-19 15:35:00,57.7,23.1,29.87,West,265,18.0,22.0,26,0.00,,SKC,0.00,742.00,VWS V14.01,2013-03-19 19:35:00,
2013-03-19 15:37:00,57.6,23.0,29.87,SW,229,12.0,22.0,26,0.00,,SKC,0.00,740.00,VWS V14.01,2013-03-19 19:37:00,
2013-03-19 15:38:00,57.6,23.0,29.86,WNW,294,10.0,24.0,26,0.00,,SKC,0.00,735.00,VWS V14.01,2013-03-19 19:38:00,
2013-03-19 15:39:00,57.8,24.1,29.86,NNW,339,7.0,24.0,27,0.00,,SKC,0.00,733.00,VWS V14.01,2013-03-19 19:39:00,
2013-03-19 15:41:00,58.0,23.3,29.87,West,269,13.0,24.0,26,0.00,,SKC,0.00,733.00,VWS V14.01,2013-03-19 19:41:00,
2013-03-19 15:42:00,58.0,24.2,29.87,SW,215,6.0,24.0,27,0.00,,SKC,0.00,729.00,VWS V14.01,2013-03-19 19:42:00,
2013-03-19 15:43:00,58.1,24.3,29.87,NW,316,3.0,24.0,27,0.00,,SKC,0.00,726.00,VWS V14.01,2013-03-19 19:43:00,
2013-03-19 15:45:00,58.5,25.5,29.87,SW,234,5.0,24.0,28,0.00,,SKC,0.00,726.00,VWS V14.01,2013-03-19 19:45:00,
2013-03-19 15:46:00,58.7,25.7,29.87,WSW,237,7.0,24.0,28,0.00,,SKC,0.00,722.00,VWS V14.01,2013-03-19 19:46:00,
2013-03-19 15:47:00,58.9,24.1,29.87,SSW,200,8.0,24.0,26,0.00,,SKC,0.00,719.00,VWS V14.01,2013-03-19 19:47:00,
2013-03-19 15:48:00,59.0,26.0,29.87,SW,235,6.0,24.0,28,0.00,,SKC,0.00,717.00,VWS V14.01,2013-03-19 19:48:00,
2013-03-19 15:50:00,58.9,24.1,29.86,WSW,251,12.0,24.0,26,0.00,,SKC,0.00,708.00,VWS V14.01,2013-03-19 19:50:00,
2013-03-19 15:51:00,58.6,23.8,29.87,WSW,246,17.0,24.0,26,0.00,,SKC,0.00,708.00,VWS V14.01,2013-03-19 19:51:00,
2013-03-19 15:52:00,58.4,23.7,29.87,NNW,334,4.0,24.0,26,0.00,,SKC,0.00,703.00,VWS V14.01,2013-03-19 19:52:00,
2013-03-19 15:53:00,58.4,24.6,29.87,WNW,292,6.0,24.0,27,0.00,,SKC,0.00,703.00,VWS V14.01,2013-03-19 19:53:00,
2013-03-19 15:55:00,58.6,24.8,29.87,WSW,246,7.0,24.0,27,0.00,,SKC,0.00,696.00,VWS V14.01,2013-03-19 19:55:00,
2013-03-19 15:56:00,58.6,23.8,29.87,West,275,15.0,24.0,26,0.00,,SKC,0.00,693.00,VWS V14.01,2013-03-19 19:56:00,
2013-03-19 15:58:00,58.5,23.8,29.87,West,268,16.0,24.0,26,0.00,,SKC,0.00,694.00,VWS V14.01,2013-03-19 19:58:00,
2013-03-19 16:00:00,58.4,23.7,29.87,West,271,10.0,24.0,26,0.00,,SKC,0.00,687.00,VWS V14.01,2013-03-19 20:00:00,
2013-03-19 16:01:00,58.4,23.7,29.87,WSW,240,8.0,11.0,26,0.00,,SKC,0.00,682.00,VWS V14.01,2013-03-19 20:01:00,
2013-03-19 16:03:00,58.6,23.8,29.87,West,278,8.0,12.0,26,0.00,,SKC,0.00,682.00,VWS V14.01,2013-03-19 20:03:00,
2013-03-19 16:05:00,58.7,23.9,29.87,North,351,19.0,19.0,26,0.00,,SKC,0.00,675.00,VWS V14.01,2013-03-19 20:05:00,
2013-03-19 16:06:00,58.7,22.0,29.87,WNW,292,15.0,20.0,24,0.00,,SKC,0.00,675.00,VWS V14.01,2013-03-19 20:06:00,
2013-03-19 16:08:00,58.7,23.0,29.87,NNW,335,12.0,23.0,25,0.00,,SKC,0.00,668.00,VWS V14.01,2013-03-19 20:08:00,
2013-03-19 16:11:00,58.7,22.0,29.87,West,271,12.0,23.0,24,0.00,,SKC,0.00,670.00,VWS V14.01,2013-03-19 20:11:00,
2013-03-19 16:13:00,58.7,22.0,29.87,WNW,284,5.0,23.0,24,0.00,,SKC,0.00,659.00,VWS V14.01,2013-03-19 20:13:00,
2013-03-19 16:14:00,58.7,22.0,29.87,WNW,284,7.0,23.0,24,0.00,,SKC,0.00,659.00,VWS V14.01,2013-03-19 20:14:00,
2013-03-19 16:16:00,58.7,21.0,29.87,WSW,254,18.0,25.0,23,0.00,,SKC,0.00,650.00,VWS V14.01,2013-03-19 20:16:00,
2013-03-19 16:17:00,58.7,21.0,29.87,North,11,13.0,25.0,23,0.00,,SKC,0.00,650.00,VWS V14.01,2013-03-19 20:17:00,
2013-03-19 16:18:00,58.5,20.9,29.87,West,275,22.0,25.0,23,0.00,,SKC,0.00,647.00,VWS V14.01,2013-03-19 20:18:00,
2013-03-19 16:19:00,58.4,20.8,29.87,West,278,10.0,25.0,23,0.00,,SKC,0.00,642.00,VWS V14.01,2013-03-19 20:19:00,
2013-03-19 16:22:00,58.3,20.7,29.88,West,260,18.0,25.0,23,0.00,,SKC,0.00,636.00,VWS V14.01,2013-03-19 20:22:00,
2013-03-19 16:23:00,58.2,22.6,29.87,WNW,290,10.0,25.0,25,0.00,,SKC,0.00,631.00,VWS V14.01,2013-03-19 20:23:00,
2013-03-19 16:24:00,58.2,21.6,29.87,West,277,9.0,25.0,24,0.00,,SKC,0.00,633.00,VWS V14.01,2013-03-19 20:24:00,
2013-03-19 16:27:00,58.5,21.9,29.87,West,277,6.0,25.0,24,0.00,,SKC,0.00,622.00,VWS V14.01,2013-03-19 20:27:00,
2013-03-19 16:28:00,58.4,20.8,29.87,West,261,5.0,25.0,23,0.00,,SKC,0.00,619.00,VWS V14.01,2013-03-19 20:28:00,
2013-03-19 16:29:00,58.4,20.8,29.87,WSW,243,5.0,25.0,23,0.00,,SKC,0.00,615.00,VWS V14.01,2013-03-19 20:29:00,
2013-03-19 16:32:00,58.4,20.8,29.87,SW,236,8.0,13.0,23,0.00,,SKC,0.00,605.00,VWS V14.01,2013-03-19 20:32:00,
2013-03-19 16:34:00,58.4,20.8,29.87,WSW,249,11.0,13.0,23,0.00,,SKC,0.00,601.00,VWS V14.01,2013-03-19 20:34:00,
2013-03-19 16:37:00,58.3,20.7,29.87,SW,231,4.0,13.0,23,0.00,,SKC,0.00,589.00,VWS V14.01,2013-03-19 20:37:00,
2013-03-19 16:38:00,58.3,22.6,29.87,WSW,240,3.0,13.0,25,0.00,,SKC,0.00,589.00,VWS V14.01,2013-03-19 20:38:00,
2013-03-19 16:39:00,58.4,21.8,29.87,West,259,10.0,13.0,24,0.00,,SKC,0.00,585.00,VWS V14.01,2013-03-19 20:39:00,
2013-03-19 16:43:00,58.2,20.6,29.87,West,261,9.0,19.0,23,0.00,,SKC,0.00,570.00,VWS V14.01,2013-03-19 20:43:00,
2013-03-19 16:44:00,58.2,21.6,29.87,WSW,258,20.0,20.0,24,0.00,,SKC,0.00,517.00,VWS V14.01,2013-03-19 20:44:00,
2013-03-19 16:48:00,58.1,20.5,29.88,NW,306,17.0,21.0,23,0.00,,SKC,0.00,374.00,VWS V14.01,2013-03-19 20:48:00,
2013-03-19 16:49:00,58.1,21.5,29.88,NNW,327,7.0,21.0,24,0.00,,SKC,0.00,455.00,VWS V14.01,2013-03-19 20:49:00,
2013-03-19 16:53:00,58.0,23.3,29.88,NW,309,13.0,21.0,26,0.00,,SKC,0.00,388.00,VWS V14.01,2013-03-19 20:53:00,
2013-03-19 16:54:00,58.0,21.4,29.88,NW,315,6.0,21.0,24,0.00,,SKC,0.00,352.00,VWS V14.01,2013-03-19 20:54:00,
2013-03-19 16:55:00,58.0,22.4,29.88,NW,304,12.0,21.0,25,0.00,,SKC,0.00,352.00,VWS V14.01,2013-03-19 20:55:00,
2013-03-19 16:58:00,58.1,20.5,29.88,NNW,346,13.0,21.0,23,0.00,,SKC,0.00,330.00,VWS V14.01,2013-03-19 20:58:00,
2013-03-19 16:59:00,58.1,20.5,29.88,WNW,287,13.0,21.0,23,0.00,,SKC,0.00,287.00,VWS V14.01,2013-03-19 20:59:00,
2013-03-19 17:00:00,58.0,19.4,29.88,West,271,14.0,21.0,22,0.00,,SKC,0.00,287.00,VWS V14.01,2013-03-19 21:00:00,
2013-03-19 17:03:00,57.7,19.1,29.88,WNW,301,26.0,26.0,22,0.00,,SKC,0.00,155.00,VWS V14.01,2013-03-19 21:03:00,
2013-03-19 17:04:00,57.5,19.0,29.88,WNW,292,16.0,26.0,22,0.00,,SKC,0.00,148.00,VWS V14.01,2013-03-19 21:04:00,
2013-03-19 17:05:00,57.4,18.9,29.88,NW,308,11.0,26.0,22,0.00,,SKC,0.00,148.00,VWS V14.01,2013-03-19 21:05:00,
2013-03-19 17:08:00,57.3,19.8,29.89,WSW,245,9.0,26.0,23,0.00,,SKC,0.00,179.00,VWS V14.01,2013-03-19 21:08:00,
2013-03-19 17:09:00,57.3,19.8,29.89,NW,315,16.0,26.0,23,0.00,,SKC,0.00,84.00,VWS V14.01,2013-03-19 21:09:00,
2013-03-19 17:10:00,57.2,19.8,29.89,WNW,294,9.0,26.0,23,0.00,,SKC,0.00,84.00,VWS V14.01,2013-03-19 21:10:00,
2013-03-19 17:14:00,57.1,19.7,29.89,NNW,327,5.0,26.0,23,0.00,,SKC,0.00,160.00,VWS V14.01,2013-03-19 21:14:00,
2013-03-19 17:15:00,57.1,19.7,29.90,West,280,6.0,26.0,23,0.00,,SKC,0.00,102.00,VWS V14.01,2013-03-19 21:15:00,
2013-03-19 17:19:00,57.0,19.6,29.90,WSW,251,8.0,26.0,23,0.00,,SKC,0.00,134.00,VWS V14.01,2013-03-19 21:19:00,
2013-03-19 17:20:00,56.9,18.5,29.90,West,267,17.0,26.0,22,0.00,,SKC,0.00,120.00,VWS V14.01,2013-03-19 21:20:00,
2013-03-19 17:24:00,56.8,18.4,29.89,WNW,302,14.0,26.0,22,0.00,,SKC,0.00,109.00,VWS V14.01,2013-03-19 21:24:00,
2013-03-19 17:26:00,56.7,19.3,29.90,West,261,13.0,26.0,23,0.00,,SKC,0.00,142.00,VWS V14.01,2013-03-19 21:26:00,
2013-03-19 17:29:00,56.6,18.2,29.90,WNW,288,16.0,26.0,22,0.00,,SKC,0.00,236.00,VWS V14.01,2013-03-19 21:29:00,
2013-03-19 17:31:00,56.6,17.1,29.90,WSW,248,18.0,26.0,21,0.00,,SKC,0.00,53.00,VWS V14.01,2013-03-19 21:31:00,
2013-03-19 17:34:00,56.6,17.1,29.90,WNW,283,9.0,17.0,21,0.00,,SKC,0.00,167.00,VWS V14.01,2013-03-19 21:34:00,
2013-03-19 17:36:00,56.6,16.0,29.90,SW,231,10.0,27.0,20,0.00,,SKC,0.00,141.00,VWS V14.01,2013-03-19 21:36:00,
2013-03-19 17:37:00,56.5,17.1,29.90,NW,305,10.0,27.0,21,0.00,,SKC,0.00,113.00,VWS V14.01,2013-03-19 21:37:00,
2013-03-19 17:39:00,56.5,17.1,29.90,West,261,11.0,27.0,21,0.00,,SKC,0.00,227.00,VWS V14.01,2013-03-19 21:39:00,
2013-03-19 17:41:00,56.5,15.9,29.90,West,270,17.0,27.0,20,0.00,,SKC,0.00,188.00,VWS V14.01,2013-03-19 21:41:00,
2013-03-19 17:42:00,56.5,15.9,29.90,West,277,12.0,27.0,20,0.00,,SKC,0.00,160.00,VWS V14.01,2013-03-19 21:42:00,
2013-03-19 17:44:00,56.3,15.8,29.91,WSW,257,20.0,27.0,20,0.00,,SKC,0.00,155.00,VWS V14.01,2013-03-19 21:44:00,
2013-03-19 17:45:00,56.3,15.8,29.91,West,266,29.0,29.0,20,0.00,,SKC,0.00,181.00,VWS V14.01,2013-03-19 21:45:00,
2013-03-19 17:46:00,56.3,15.8,29.91,WSW,258,15.0,29.0,20,0.00,,SKC,0.00,90.00,VWS V14.01,2013-03-19 21:46:00,
2013-03-19 17:47:00,56.2,14.5,29.91,West,265,7.0,29.0,19,0.00,,SKC,0.00,51.00,VWS V14.01,2013-03-19 21:47:00,
2013-03-19 17:49:00,56.2,14.5,29.91,NNW,342,8.0,29.0,19,0.00,,SKC,0.00,160.00,VWS V14.01,2013-03-19 21:49:00,
2013-03-19 17:50:00,56.2,14.5,29.91,West,260,12.0,29.0,19,0.00,,SKC,0.00,160.00,VWS V14.01,2013-03-19 21:50:00,
2013-03-19 17:51:00,56.2,14.5,29.91,West,259,7.0,29.0,19,0.00,,SKC,0.00,153.00,VWS V14.01,2013-03-19 21:51:00,
2013-03-19 17:52:00,56.1,14.4,29.91,WSW,253,7.0,29.0,19,0.00,,SKC,0.00,174.00,VWS V14.01,2013-03-19 21:52:00,
2013-03-19 17:54:00,56.0,13.1,29.91,WNW,296,25.0,29.0,18,0.00,,SKC,0.00,204.00,VWS V14.01,2013-03-19 21:54:00,
2013-03-19 17:55:00,55.9,13.0,29.91,WNW,289,18.0,29.0,18,0.00,,SKC,0.00,204.00,VWS V14.01,2013-03-19 21:55:00,
2013-03-19 17:57:00,55.7,12.9,29.91,West,260,14.0,29.0,18,0.00,,SKC,0.00,206.00,VWS V14.01,2013-03-19 21:57:00,
2013-03-19 18:00:00,55.5,12.7,29.92,WNW,292,14.0,30.0,18,0.00,,SKC,0.00,105.00,VWS V14.01,2013-03-19 22:00:00,
2013-03-19 18:02:00,55.4,12.6,29.91,SW,232,13.0,20.0,18,0.00,,SKC,0.00,221.00,VWS V14.01,2013-03-19 22:02:00,
2013-03-19 18:05:00,55.4,12.6,29.92,WNW,293,20.0,24.0,18,0.00,,SKC,0.00,151.00,VWS V14.01,2013-03-19 22:05:00,
2013-03-19 18:07:00,55.3,12.5,29.92,West,259,15.0,26.0,18,0.00,,SKC,0.00,134.00,VWS V14.01,2013-03-19 22:07:00,
2013-03-19 18:10:00,55.1,12.4,29.92,West,270,11.0,26.0,18,0.00,,SKC,0.00,155.00,VWS V14.01,2013-03-19 22:10:00,
2013-03-19 18:11:00,55.1,12.4,29.92,WNW,291,19.0,26.0,18,0.00,,SKC,0.00,155.00,VWS V14.01,2013-03-19 22:11:00,
2013-03-19 18:12:00,55.1,13.6,29.92,WNW,301,13.0,26.0,19,0.00,,SKC,0.00,160.00,VWS V14.01,2013-03-19 22:12:00,
2013-03-19 18:13:00,55.1,13.6,29.92,West,271,18.0,26.0,19,0.00,,SKC,0.00,107.00,VWS V14.01,2013-03-19 22:13:00,
2013-03-19 18:15:00,55.0,11.0,29.91,WSW,240,11.0,26.0,17,0.00,,SKC,0.00,183.00,VWS V14.01,2013-03-19 22:15:00,
2013-03-19 18:16:00,55.0,11.0,29.91,SW,216,15.0,26.0,17,0.00,,SKC,0.00,183.00,VWS V14.01,2013-03-19 22:16:00,
2013-03-19 18:17:00,54.9,13.4,29.92,NW,304,6.0,26.0,19,0.00,,SKC,0.00,72.00,VWS V14.01,2013-03-19 22:17:00,
2013-03-19 18:18:00,54.9,13.4,29.92,West,267,24.0,26.0,19,0.00,,SKC,0.00,72.00,VWS V14.01,2013-03-19 22:18:00,
2013-03-19 18:21:00,54.9,10.9,29.92,West,266,16.0,26.0,17,0.00,,SKC,0.00,156.00,VWS V14.01,2013-03-19 22:21:00,
2013-03-19 18:22:00,54.8,10.8,29.92,WNW,288,13.0,26.0,17,0.00,,SKC,0.00,148.00,VWS V14.01,2013-03-19 22:22:00,
2013-03-19 18:23:00,54.8,10.8,29.92,WNW,293,8.0,26.0,17,0.00,,SKC,0.00,148.00,VWS V14.01,2013-03-19 22:23:00,
2013-03-19 18:26:00,54.8,9.5,29.92,NW,314,10.0,26.0,16,0.00,,SKC,0.00,33.00,VWS V14.01,2013-03-19 22:26:00,
2013-03-19 18:27:00,54.8,10.8,29.92,NNW,327,11.0,26.0,17,0.00,,SKC,0.00,35.00,VWS V14.01,2013-03-19 22:27:00,
2013-03-19 18:28:00,54.7,10.8,29.92,SW,233,11.0,26.0,17,0.00,,SKC,0.00,47.00,VWS V14.01,2013-03-19 22:28:00,
2013-03-19 18:31:00,54.6,10.7,29.92,NW,304,18.0,18.0,17,0.00,,SKC,0.00,148.00,VWS V14.01,2013-03-19 22:31:00,
2013-03-19 18:32:00,54.6,10.7,29.92,WNW,286,12.0,18.0,17,0.00,,SKC,0.00,179.00,VWS V14.01,2013-03-19 22:32:00,
2013-03-19 18:33:00,54.6,10.7,29.92,West,260,20.0,23.0,17,0.00,,SKC,0.00,171.00,VWS V14.01,2013-03-19 22:33:00,
2013-03-19 18:36:00,54.4,9.2,29.92,North,355,18.0,24.0,16,0.00,,SKC,0.00,139.00,VWS V14.01,2013-03-19 22:36:00,
2013-03-19 18:37:00,54.4,9.2,29.92,NNW,329,10.0,24.0,16,0.00,,SKC,0.00,144.00,VWS V14.01,2013-03-19 22:37:00,
2013-03-19 18:38:00,54.4,9.2,29.92,WNW,298,10.0,24.0,16,0.00,,SKC,0.00,127.00,VWS V14.01,2013-03-19 22:38:00,
2013-03-19 18:42:00,54.2,9.0,29.93,WNW,288,11.0,24.0,16,0.00,,SKC,0.00,62.00,VWS V14.01,2013-03-19 22:42:00,
2013-03-19 18:43:00,54.2,10.4,29.92,WNW,290,11.0,24.0,17,0.00,,SKC,0.00,74.00,VWS V14.01,2013-03-19 22:43:00,
2013-03-19 18:44:00,54.2,10.4,29.92,NNW,334,19.0,24.0,17,0.00,,SKC,0.00,42.00,VWS V14.01,2013-03-19 22:44:00,
2013-03-19 18:47:00,54.1,10.3,29.93,WSW,246,7.0,24.0,17,0.00,,SKC,0.00,100.00,VWS V14.01,2013-03-19 22:47:00,
2013-03-19 18:48:00,54.0,11.5,29.93,West,280,9.0,24.0,18,0.00,,SKC,0.00,95.00,VWS V14.01,2013-03-19 22:48:00,
2013-03-19 18:49:00,54.0,10.2,29.93,NW,316,21.0,24.0,17,0.00,,SKC,0.00,60.00,VWS V14.01,2013-03-19 22:49:00,
2013-03-19 18:52:00,53.9,10.1,29.93,West,275,10.0,24.0,17,0.00,,SKC,0.00,70.00,VWS V14.01,2013-03-19 22:52:00,
2013-03-19 18:53:00,53.9,10.1,29.93,West,267,12.0,24.0,17,0.00,,SKC,0.00,65.00,VWS V14.01,2013-03-19 22:53:00,
2013-03-19 18:55:00,53.8,10.0,29.93,West,276,7.0,24.0,17,0.00,,SKC,0.00,60.00,VWS V14.01,2013-03-19 22:55:00,
2013-03-19 18:57:00,53.7,9.9,29.93,WSW,258,12.0,24.0,17,0.00,,SKC,0.00,28.00,VWS V14.01,2013-03-19 22:57:00,
2013-03-19 18:59:00,53.6,8.5,29.93,WSW,244,10.0,24.0,16,0.00,,SKC,0.00,28.00,VWS V14.01,2013-03-19 22:59:00,
2013-03-19 19:00:00,53.6,8.5,29.93,WSW,249,9.0,24.0,16,0.00,,SKC,0.00,28.00,VWS V14.01,2013-03-19 23:00:00,
2013-03-19 19:02:00,53.4,8.4,29.93,WSW,240,6.0,11.0,16,0.00,,SKC,0.00,28.00,VWS V14.01,2013-03-19 23:02:00,
2013-03-19 19:03:00,53.4,8.4,29.93,WSW,240,6.0,11.0,16,0.00,,SKC,0.00,28.00,VWS V14.01,2013-03-19 23:03:00,
2013-03-19 19:04:00,53.3,8.3,29.93,West,261,6.0,11.0,16,0.00,,SKC,0.00,33.00,VWS V14.01,2013-03-19 23:04:00,
2013-03-19 19:05:00,53.3,8.3,29.93,SW,233,7.0,11.0,16,0.00,,SKC,0.00,33.00,VWS V14.01,2013-03-19 23:05:00,
2013-03-19 19:08:00,53.1,8.1,29.94,West,259,8.0,14.0,16,0.00,,SKC,0.00,18.00,VWS V14.01,2013-03-19 23:08:00,
2013-03-19 19:09:00,53.1,8.1,29.94,WSW,246,7.0,14.0,16,0.00,,SKC,0.00,18.00,VWS V14.01,2013-03-19 23:09:00,
2013-03-19 19:10:00,53.0,8.0,29.94,West,263,8.0,14.0,16,0.00,,SKC,0.00,16.00,VWS V14.01,2013-03-19 23:10:00,
2013-03-19 19:13:00,52.8,7.9,29.94,West,273,13.0,21.0,16,0.00,,SKC,0.00,14.00,VWS V14.01,2013-03-19 23:13:00,
2013-03-19 19:14:00,52.8,6.4,29.93,West,261,8.0,21.0,15,0.00,,SKC,0.00,14.00,VWS V14.01,2013-03-19 23:14:00,
2013-03-19 19:15:00,52.7,7.8,29.94,West,271,4.0,21.0,16,0.00,,SKC,0.00,14.00,VWS V14.01,2013-03-19 23:15:00,
2013-03-19 19:18:00,52.5,7.6,29.94,West,281,10.0,21.0,16,0.00,,SKC,0.00,12.00,VWS V14.01,2013-03-19 23:18:00,
2013-03-19 19:19:00,52.5,6.2,29.94,West,279,10.0,21.0,15,0.00,,SKC,0.00,12.00,VWS V14.01,2013-03-19 23:19:00,
2013-03-19 19:20:00,52.4,6.1,29.94,West,275,12.0,21.0,15,0.00,,SKC,0.00,11.00,VWS V14.01,2013-03-19 23:20:00,
2013-03-19 19:23:00,52.3,6.0,29.94,West,280,11.0,21.0,15,0.00,,SKC,0.00,9.00,VWS V14.01,2013-03-19 23:23:00,
2013-03-19 19:24:00,52.3,6.0,29.94,WSW,238,4.0,21.0,15,0.00,,SKC,0.00,9.00,VWS V14.01,2013-03-19 23:24:00,
2013-03-19 19:25:00,52.2,8.7,29.95,WSW,242,5.0,21.0,17,0.00,,SKC,0.00,9.00,VWS V14.01,2013-03-19 23:25:00,
2013-03-19 19:28:00,51.9,5.7,29.95,West,268,9.0,21.0,15,0.00,,SKC,0.00,7.00,VWS V14.01,2013-03-19 23:28:00,
2013-03-19 19:29:00,51.9,5.7,29.95,NW,308,8.0,21.0,15,0.00,,SKC,0.00,5.00,VWS V14.01,2013-03-19 23:29:00,
2013-03-19 19:30:00,51.8,5.6,29.95,SW,221,12.0,21.0,15,0.00,,SKC,0.00,5.00,VWS V14.01,2013-03-19 23:30:00,
2013-03-19 19:33:00,51.7,5.6,29.95,West,267,14.0,18.0,15,0.00,,SKC,0.00,0.00,VWS V14.01,2013-03-19 23:33:00,
2013-03-19 19:34:00,51.7,5.6,29.95,West,261,20.0,20.0,15,0.00,,SKC,0.00,0.00,VWS V14.01,2013-03-19 23:34:00,
2013-03-19 19:35:00,51.7,5.6,29.95,West,260,9.0,25.0,15,0.00,,SKC,0.00,0.00,VWS V14.01,2013-03-19 23:35:00,
2013-03-19 19:38:00,51.5,5.4,29.95,West,272,9.0,25.0,15,0.00,,SKC,0.00,0.00,VWS V14.01,2013-03-19 23:38:00,
2013-03-19 19:39:00,51.4,6.7,29.95,WSW,254,7.0,25.0,16,0.00,,SKC,0.00,0.00,VWS V14.01,2013-03-19 23:39:00,
2013-03-19 19:40:00,51.3,6.7,29.95,WSW,240,18.0,25.0,16,0.00,,SKC,0.00,0.00,VWS V14.01,2013-03-19 23:40:00,
2013-03-19 19:43:00,51.3,6.7,29.96,West,261,19.0,25.0,16,0.00,,SKC,0.00,0.00,VWS V14.01,2013-03-19 23:43:00,
2013-03-19 19:44:00,51.3,5.2,29.96,WNW,300,17.0,25.0,15,0.00,,SKC,0.00,0.00,VWS V14.01,2013-03-19 23:44:00,
2013-03-19 19:45:00,51.2,5.2,29.95,WSW,258,6.0,25.0,15,0.00,,SKC,0.00,0.00,VWS V14.01,2013-03-19 23:45:00,
2013-03-19 19:49:00,51.1,5.1,29.95,WSW,238,10.0,25.0,15,0.00,,SKC,0.00,0.00,VWS V14.01,2013-03-19 23:49:00,
2013-03-19 19:50:00,51.0,5.0,29.96,West,273,7.0,25.0,15,0.00,,SKC,0.00,0.00,VWS V14.01,2013-03-19 23:50:00,
2013-03-19 19:51:00,51.0,5.0,29.96,SW,233,17.0,25.0,15,0.00,,SKC,0.00,0.00,VWS V14.01,2013-03-19 23:51:00,
2013-03-19 19:54:00,51.0,5.0,29.96,WSW,257,7.0,25.0,15,0.00,,SKC,0.00,0.00,VWS V14.01,2013-03-19 23:54:00,
2013-03-19 19:55:00,50.9,4.9,29.96,West,268,13.0,25.0,15,0.00,,SKC,0.00,0.00,VWS V14.01,2013-03-19 23:55:00,
2013-03-19 19:56:00,50.9,4.9,29.96,West,277,8.0,25.0,15,0.00,,SKC,0.00,0.00,VWS V14.01,2013-03-19 23:56:00,
2013-03-19 19:59:00,50.8,4.8,29.96,West,266,9.0,25.0,15,0.00,,SKC,0.00,0.00,VWS V14.01,2013-03-19 23:59:00,
2013-03-19 20:00:00,50.8,4.8,29.96,West,270,8.0,25.0,15,0.00,,SKC,0.00,0.00,VWS V14.01,2013-03-20 00:00:00,
2013-03-19 20:01:00,50.7,6.2,29.96,West,267,8.0,25.0,16,0.00,,SKC,0.00,0.00,VWS V14.01,2013-03-20 00:01:00,
2013-03-19 20:04:00,50.4,5.9,29.97,West,269,9.0,15.0,16,0.00,,SKC,0.00,0.00,VWS V14.01,2013-03-20 00:04:00,
2013-03-19 20:05:00,50.4,5.9,29.97,WSW,252,12.0,15.0,16,0.00,,SKC,0.00,0.00,VWS V14.01,2013-03-20 00:05:00,
2013-03-19 20:06:00,50.4,5.9,29.97,WNW,292,10.0,15.0,16,0.00,,SKC,0.00,0.00,VWS V14.01,2013-03-20 00:06:00,
2013-03-19 20:10:00,50.3,7.2,29.97,West,272,6.0,15.0,17,0.00,,SKC,0.00,0.00,VWS V14.01,2013-03-20 00:10:00,
2013-03-19 20:11:00,50.1,5.7,29.97,West,263,9.0,15.0,16,0.00,,SKC,0.00,0.00,VWS V14.01,2013-03-20 00:11:00,
2013-03-19 20:15:00,50.2,5.8,29.97,WNW,283,17.0,24.0,16,0.00,,SKC,0.00,0.00,VWS V14.01,2013-03-20 00:15:00,
2013-03-19 20:16:00,50.2,7.1,29.97,West,264,8.0,24.0,17,0.00,,SKC,0.00,0.00,VWS V14.01,2013-03-20 00:16:00,
2013-03-19 20:20:00,50.1,7.0,29.97,West,259,17.0,24.0,17,0.00,,SKC,0.00,0.00,VWS V14.01,2013-03-20 00:20:00,
2013-03-19 20:21:00,50.1,7.0,29.97,WSW,254,14.0,24.0,17,0.00,,SKC,0.00,0.00,VWS V14.01,2013-03-20 00:21:00,
2013-03-19 20:22:00,50.1,7.0,29.97,WNW,284,8.0,24.0,17,0.00,,SKC,0.00,0.00,VWS V14.01,2013-03-20 00:22:00,
2013-03-19 20:25:00,49.9,6.8,29.98,West,267,13.0,24.0,17,0.00,,SKC,0.00,0.00,VWS V14.01,2013-03-20 00:25:00,
2013-03-19 20:26:00,49.9,6.8,29.97,WNW,287,8.0,24.0,17,0.00,,SKC,0.00,0.00,VWS V14.01,2013-03-20 00:26:00,
2013-03-19 20:27:00,49.9,6.8,29.98,West,269,9.0,24.0,17,0.00,,SKC,0.00,0.00,VWS V14.01,2013-03-20 00:27:00,
2013-03-19 20:30:00,49.9,6.8,29.98,West,265,13.0,24.0,17,0.00,,SKC,0.00,0.00,VWS V14.01,2013-03-20 00:30:00,
2013-03-19 20:32:00,49.9,6.8,29.97,WNW,288,10.0,17.0,17,0.00,,SKC,0.00,0.00,VWS V14.01,2013-03-20 00:32:00,
2013-03-19 20:33:00,49.8,8.0,29.98,WNW,290,11.0,17.0,18,0.00,,SKC,0.00,0.00,VWS V14.01,2013-03-20 00:33:00,
2013-03-19 20:35:00,49.7,6.7,29.97,West,263,9.0,17.0,17,0.00,,SKC,0.00,0.00,VWS V14.01,2013-03-20 00:35:00,
2013-03-19 20:36:00,49.7,7.9,29.97,WSW,249,12.0,17.0,18,0.00,,SKC,0.00,0.00,VWS V14.01,2013-03-20 00:36:00,
2013-03-19 20:37:00,49.6,7.8,29.97,West,265,5.0,17.0,18,0.00,,SKC,0.00,0.00,VWS V14.01,2013-03-20 00:37:00,
2013-03-19 20:38:00,49.6,7.8,29.98,West,273,3.0,17.0,18,0.00,,SKC,0.00,0.00,VWS V14.01,2013-03-20 00:38:00,
2013-03-19 20:40:00,49.4,7.7,29.98,West,269,10.0,17.0,18,0.00,,SKC,0.00,0.00,VWS V14.01,2013-03-20 00:40:00,
2013-03-19 20:41:00,49.4,7.7,29.98,West,267,5.0,17.0,18,0.00,,SKC,0.00,0.00,VWS V14.01,2013-03-20 00:41:00,
2013-03-19 20:42:00,49.3,7.6,29.98,West,265,17.0,17.0,18,0.00,,SKC,0.00,0.00,VWS V14.01,2013-03-20 00:42:00,
2013-03-19 20:43:00,49.4,6.4,29.98,West,271,9.0,17.0,17,0.00,,SKC,0.00,0.00,VWS V14.01,2013-03-20 00:43:00,
2013-03-19 20:45:00,49.4,7.7,29.98,West,272,7.0,17.0,18,0.00,,SKC,0.00,0.00,VWS V14.01,2013-03-20 00:45:00,
2013-03-19 20:46:00,49.4,7.7,29.98,NW,320,10.0,17.0,18,0.00,,SKC,0.00,0.00,VWS V14.01,2013-03-20 00:46:00,
2013-03-19 20:47:00,49.4,7.7,29.98,SW,231,5.0,17.0,18,0.00,,SKC,0.00,0.00,VWS V14.01,2013-03-20 00:47:00,
2013-03-19 20:48:00,49.3,7.6,29.98,NW,306,6.0,17.0,18,0.00,,SKC,0.00,0.00,VWS V14.01,2013-03-20 00:48:00,
2013-03-19 20:50:00,49.2,7.5,29.98,West,265,12.0,17.0,18,0.00,,SKC,0.00,0.00,VWS V14.01,2013-03-20 00:50:00,
2013-03-19 20:52:00,49.1,7.4,29.98,West,265,5.0,17.0,18,0.00,,SKC,0.00,0.00,VWS V14.01,2013-03-20 00:52:00,
2013-03-19 20:53:00,49.0,7.4,29.99,West,273,6.0,17.0,18,0.00,,SKC,0.00,0.00,VWS V14.01,2013-03-20 00:53:00,
2013-03-19 20:55:00,48.8,7.2,29.99,WNW,294,5.0,17.0,18,0.00,,SKC,0.00,0.00,VWS V14.01,2013-03-20 00:55:00,
2013-03-19 20:57:00,48.9,7.3,29.99,WNW,293,6.0,17.0,18,0.00,,SKC,0.00,0.00,VWS V14.01,2013-03-20 00:57:00,
2013-03-19 20:58:00,48.9,7.3,29.99,West,259,13.0,17.0,18,0.00,,SKC,0.00,0.00,VWS V14.01,2013-03-20 00:58:00,
2013-03-19 21:00:00,48.8,7.2,29.99,West,270,5.0,17.0,18,0.00,,SKC,0.00,0.00,VWS V14.01,2013-03-20 01:00:00,
2013-03-19 21:02:00,48.8,7.2,29.99,NW,305,5.0,13.0,18,0.00,,SKC,0.00,0.00,VWS V14.01,2013-03-20 01:02:00,
2013-03-19 21:03:00,48.7,7.1,29.99,NNW,329,8.0,13.0,18,0.00,,SKC,0.00,0.00,VWS V14.01,2013-03-20 01:03:00,
2013-03-19 21:06:00,48.6,7.0,29.99,West,275,8.0,13.0,18,0.00,,SKC,0.00,0.00,VWS V14.01,2013-03-20 01:06:00,
2013-03-19 21:08:00,48.6,7.0,29.99,WNW,286,5.0,13.0,18,0.00,,SKC,0.00,0.00,VWS V14.01,2013-03-20 01:08:00,
2013-03-19 21:11:00,48.5,8.1,30.00,West,274,5.0,13.0,19,0.00,,SKC,0.00,0.00,VWS V14.01,2013-03-20 01:11:00,
2013-03-19 21:13:00,48.4,6.9,30.00,NW,305,9.0,14.0,18,0.00,,SKC,0.00,0.00,VWS V14.01,2013-03-20 01:13:00,
2013-03-19 21:14:00,48.4,6.9,30.00,WNW,289,4.0,14.0,18,0.00,,SKC,0.00,0.00,VWS V14.01,2013-03-20 01:14:00,
2013-03-19 21:16:00,48.3,6.8,30.00,West,275,7.0,14.0,18,0.00,,SKC,0.00,0.00,VWS V14.01,2013-03-20 01:16:00,
2013-03-19 21:18:00,48.2,6.7,30.00,North,355,9.0,14.0,18,0.00,,SKC,0.00,0.00,VWS V14.01,2013-03-20 01:18:00,
2013-03-19 21:19:00,48.3,6.8,30.00,WNW,293,3.0,14.0,18,0.00,,SKC,0.00,0.00,VWS V14.01,2013-03-20 01:19:00,
2013-03-19 21:22:00,48.2,5.4,30.00,West,261,12.0,16.0,17,0.00,,SKC,0.00,0.00,VWS V14.01,2013-03-20 01:22:00,
2013-03-19 21:23:00,48.2,6.7,30.01,WSW,248,8.0,16.0,18,0.00,,SKC,0.00,0.00,VWS V14.01,2013-03-20 01:23:00,
2013-03-19 21:24:00,48.2,6.7,30.01,NW,315,10.0,16.0,18,0.00,,SKC,0.00,0.00,VWS V14.01,2013-03-20 01:24:00,
2013-03-19 21:27:00,48.1,7.8,30.01,WNW,293,9.0,16.0,19,0.00,,SKC,0.00,0.00,VWS V14.01,2013-03-20 01:27:00,
2013-03-19 21:29:00,48.1,6.6,30.01,SSW,201,4.0,16.0,18,0.00,,SKC,0.00,0.00,VWS V14.01,2013-03-20 01:29:00,
2013-03-19 21:32:00,47.9,5.2,30.01,West,261,12.0,16.0,17,0.00,,SKC,0.00,0.00,VWS V14.01,2013-03-20 01:32:00,
2013-03-19 21:34:00,48.0,5.3,30.01,West,277,4.0,16.0,17,0.00,,SKC,0.00,0.00,VWS V14.01,2013-03-20 01:34:00,
2013-03-19 21:37:00,47.9,5.2,30.01,West,275,15.0,16.0,17,0.00,,SKC,0.00,0.00,VWS V14.01,2013-03-20 01:37:00,
2013-03-19 21:39:00,47.9,5.2,30.01,WNW,290,8.0,16.0,17,0.00,,SKC,0.00,0.00,VWS V14.01,2013-03-20 01:39:00,
2013-03-19 21:40:00,47.9,5.2,30.01,West,267,5.0,16.0,17,0.00,,SKC,0.00,0.00,VWS V14.01,2013-03-20 01:40:00,
2013-03-19 21:43:00,47.8,5.1,30.01,NW,318,8.0,18.0,17,0.00,,SKC,0.00,0.00,VWS V14.01,2013-03-20 01:43:00,
2013-03-19 21:44:00,47.8,5.1,30.01,NW,309,5.0,18.0,17,0.00,,SKC,0.00,0.00,VWS V14.01,2013-03-20 01:44:00,
2013-03-19 21:45:00,47.8,5.1,30.01,NW,305,4.0,18.0,17,0.00,,SKC,0.00,0.00,VWS V14.01,2013-03-20 01:45:00,
2013-03-19 21:49:00,47.6,4.9,30.02,West,265,8.0,18.0,17,0.00,,SKC,0.00,0.00,VWS V14.01,2013-03-20 01:49:00,
2013-03-19 21:51:00,47.5,6.1,30.02,WNW,292,2.0,18.0,18,0.00,,SKC,0.00,0.00,VWS V14.01,2013-03-20 01:51:00,
2013-03-19 21:54:00,47.3,5.9,30.02,WNW,300,10.0,18.0,18,0.00,,SKC,0.00,0.00,VWS V14.01,2013-03-20 01:54:00,
2013-03-19 21:55:00,47.3,4.7,30.02,SW,234,7.0,18.0,17,0.00,,SKC,0.00,0.00,VWS V14.01,2013-03-20 01:55:00,
2013-03-19 21:56:00,47.2,5.9,30.02,West,274,6.0,18.0,18,0.00,,SKC,0.00,0.00,VWS V14.01,2013-03-20 01:56:00,
2013-03-19 21:59:00,46.9,6.8,30.02,West,273,5.0,18.0,19,0.00,,SKC,0.00,0.00,VWS V14.01,2013-03-20 01:59:00,
2013-03-19 22:00:00,46.9,6.8,30.02,WNW,299,8.0,18.0,19,0.00,,SKC,0.00,0.00,VWS V14.01,2013-03-20 02:00:00,
2013-03-19 22:01:00,46.8,6.7,30.02,West,259,5.0,8.0,19,0.00,,SKC,0.00,0.00,VWS V14.01,2013-03-20 02:01:00,
2013-03-19 22:04:00,46.8,6.7,30.02,NW,314,8.0,11.0,19,0.00,,SKC,0.00,0.00,VWS V14.01,2013-03-20 02:04:00,
2013-03-19 22:05:00,46.8,5.5,30.02,NNW,343,12.0,20.0,18,0.00,,SKC,0.00,0.00,VWS V14.01,2013-03-20 02:05:00,
2013-03-19 22:06:00,46.8,5.5,30.02,WNW,302,5.0,20.0,18,0.00,,SKC,0.00,0.00,VWS V14.01,2013-03-20 02:06:00,
2013-03-19 22:10:00,46.8,4.3,30.02,WNW,303,12.0,20.0,17,0.00,,SKC,0.00,0.00,VWS V14.01,2013-03-20 02:10:00,
2013-03-19 22:11:00,46.8,4.3,30.02,West,272,7.0,20.0,17,0.00,,SKC,0.00,0.00,VWS V14.01,2013-03-20 02:11:00,
2013-03-19 22:12:00,46.8,5.5,30.03,WSW,254,6.0,20.0,18,0.00,,SKC,0.00,0.00,VWS V14.01,2013-03-20 02:12:00,
2013-03-19 22:15:00,46.7,5.5,30.03,SW,225,10.0,20.0,18,0.00,,SKC,0.00,0.00,VWS V14.01,2013-03-20 02:15:00,
2013-03-19 22:16:00,46.7,5.5,30.03,NW,308,10.0,20.0,18,0.00,,SKC,0.00,0.00,VWS V14.01,2013-03-20 02:16:00,
2013-03-19 22:17:00,46.7,5.5,30.03,West,268,11.0,20.0,18,0.00,,SKC,0.00,0.00,VWS V14.01,2013-03-20 02:17:00,
2013-03-19 22:20:00,46.6,5.4,30.03,WNW,290,3.0,20.0,18,0.00,,SKC,0.00,0.00,VWS V14.01,2013-03-20 02:20:00,
2013-03-19 22:21:00,46.6,5.4,30.03,WNW,300,4.0,20.0,18,0.00,,SKC,0.00,0.00,VWS V14.01,2013-03-20 02:21:00,
2013-03-19 22:22:00,46.5,5.3,30.03,NNW,342,7.0,20.0,18,0.00,,SKC,0.00,0.00,VWS V14.01,2013-03-20 02:22:00,
2013-03-19 22:25:00,46.5,5.3,30.03,West,259,5.0,20.0,18,0.00,,SKC,0.00,0.00,VWS V14.01,2013-03-20 02:25:00,
2013-03-19 22:26:00,46.4,5.2,30.03,West,276,4.0,20.0,18,0.00,,SKC,0.00,0.00,VWS V14.01,2013-03-20 02:26:00,
2013-03-19 22:27:00,46.4,5.2,30.03,West,270,8.0,20.0,18,0.00,,SKC,0.00,0.00,VWS V14.01,2013-03-20 02:27:00,
2013-03-19 22:28:00,46.4,5.2,30.03,West,277,3.0,20.0,18,0.00,,SKC,0.00,0.00,VWS V14.01,2013-03-20 02:28:00,
2013-03-19 22:30:00,46.3,6.3,30.03,SW,229,4.0,20.0,19,0.00,,SKC,0.00,0.00,VWS V14.01,2013-03-20 02:30:00,
2013-03-19 22:31:00,46.2,5.1,30.04,SW,236,2.0,4.0,18,0.00,,SKC,0.00,0.00,VWS V14.01,2013-03-20 02:31:00,
2013-03-19 22:32:00,46.2,5.1,30.04,SW,236,3.0,4.0,18,0.00,,SKC,0.00,0.00,VWS V14.01,2013-03-20 02:32:00,
2013-03-19 22:33:00,46.1,6.2,30.03,SW,235,1.0,4.0,19,0.00,,SKC,0.00,0.00,VWS V14.01,2013-03-20 02:33:00,
2013-03-19 22:35:00,45.9,6.0,30.03,West,272,2.0,4.0,19,0.00,,SKC,0.00,0.00,VWS V14.01,2013-03-20 02:35:00,
2013-03-19 22:37:00,45.9,6.0,30.03,WNW,293,5.0,6.0,19,0.00,,SKC,0.00,0.00,VWS V14.01,2013-03-20 02:37:00,
2013-03-19 22:38:00,45.8,5.9,30.03,SSW,209,4.0,8.0,19,0.00,,SKC,0.00,0.00,VWS V14.01,2013-03-20 02:38:00,
2013-03-19 22:41:00,45.7,5.8,30.03,SW,217,3.0,8.0,19,0.00,,SKC,0.00,0.00,VWS V14.01,2013-03-20 02:41:00,
2013-03-19 22:42:00,45.6,5.7,30.03,West,269,8.0,19.0,19,0.00,,SKC,0.00,0.00,VWS V14.01,2013-03-20 02:42:00,
2013-03-19 22:43:00,45.6,5.7,30.03,West,269,4.0,19.0,19,0.00,,SKC,0.00,0.00,VWS V14.01,2013-03-20 02:43:00,
2013-03-19 22:46:00,45.7,5.8,30.03,West,269,7.0,19.0,19,0.00,,SKC,0.00,0.00,VWS V14.01,2013-03-20 02:46:00,
2013-03-19 22:48:00,45.7,4.6,30.03,West,260,6.0,19.0,18,0.00,,SKC,0.00,0.00,VWS V14.01,2013-03-20 02:48:00,
2013-03-19 22:51:00,45.6,5.7,30.04,SW,232,7.0,19.0,19,0.00,,SKC,0.00,0.00,VWS V14.01,2013-03-20 02:51:00,
2013-03-19 22:53:00,45.6,4.6,30.04,WSW,256,4.0,19.0,18,0.00,,SKC,0.00,0.00,VWS V14.01,2013-03-20 02:53:00,
2013-03-19 22:57:00,45.4,4.4,30.04,West,266,7.0,19.0,18,0.00,,SKC,0.00,0.00,VWS V14.01,2013-03-20 02:57:00,
2013-03-19 22:58:00,45.4,4.4,30.04,West,279,8.0,19.0,18,0.00,,SKC,0.00,0.00,VWS V14.01,2013-03-20 02:58:00,
2013-03-19 22:59:00,45.4,4.4,30.04,WNW,291,8.0,19.0,18,0.00,,SKC,0.00,0.00,VWS V14.01,2013-03-20 02:59:00,
2013-03-19 23:03:00,45.4,4.4,30.04,WNW,283,12.0,12.0,18,0.00,,SKC,0.00,0.00,VWS V14.01,2013-03-20 03:03:00,
2013-03-19 23:04:00,45.4,4.4,30.04,WNW,284,9.0,13.0,18,0.00,,SKC,0.00,0.00,VWS V14.01,2013-03-20 03:04:00,
2013-03-19 23:08:00,45.4,4.4,30.04,NW,326,2.0,13.0,18,0.00,,SKC,0.00,0.00,VWS V14.01,2013-03-20 03:08:00,
2013-03-19 23:09:00,45.4,4.4,30.04,West,267,4.0,13.0,18,0.00,,SKC,0.00,0.00,VWS V14.01,2013-03-20 03:09:00,
2013-03-19 23:13:00,45.2,4.2,30.05,West,276,6.0,13.0,18,0.00,,SKC,0.00,0.00,VWS V14.01,2013-03-20 03:13:00,
2013-03-19 23:14:00,45.1,4.1,30.04,West,259,5.0,13.0,18,0.00,,SKC,0.00,0.00,VWS V14.01,2013-03-20 03:14:00,
2013-03-19 23:18:00,45.0,4.1,30.05,West,264,5.0,13.0,18,0.00,,SKC,0.00,0.00,VWS V14.01,2013-03-20 03:18:00,
2013-03-19 23:19:00,45.0,4.1,30.05,West,260,5.0,13.0,18,0.00,,SKC,0.00,0.00,VWS V14.01,2013-03-20 03:19:00,
2013-03-19 23:20:00,44.9,4.0,30.05,WNW,294,10.0,13.0,18,0.00,,SKC,0.00,0.00,VWS V14.01,2013-03-20 03:20:00,
2013-03-19 23:23:00,45.0,4.1,30.05,NW,324,10.0,13.0,18,0.00,,SKC,0.00,0.00,VWS V14.01,2013-03-20 03:23:00,
2013-03-19 23:24:00,44.9,4.0,30.05,NW,306,5.0,13.0,18,0.00,,SKC,0.00,0.00,VWS V14.01,2013-03-20 03:24:00,
2013-03-19 23:25:00,44.9,4.0,30.05,West,270,5.0,13.0,18,0.00,,SKC,0.00,0.00,VWS V14.01,2013-03-20 03:25:00,
2013-03-19 23:28:00,44.7,3.8,30.04,West,275,7.0,13.0,18,0.00,,SKC,0.00,0.00,VWS V14.01,2013-03-20 03:28:00,
2013-03-19 23:30:00,44.7,3.8,30.04,WNW,283,4.0,13.0,18,0.00,,SKC,0.00,0.00,VWS V14.01,2013-03-20 03:30:00,
2013-03-19 23:33:00,44.7,3.8,30.05,West,281,5.0,8.0,18,0.00,,SKC,0.00,0.00,VWS V14.01,2013-03-20 03:33:00,
2013-03-19 23:34:00,44.7,3.8,30.05,West,273,5.0,8.0,18,0.00,,SKC,0.00,0.00,VWS V14.01,2013-03-20 03:34:00,
2013-03-19 23:35:00,44.7,3.8,30.05,WSW,252,6.0,8.0,18,0.00,,SKC,0.00,0.00,VWS V14.01,2013-03-20 03:35:00,
2013-03-19 23:39:00,44.7,3.8,30.05,NW,307,4.0,8.0,18,0.00,,SKC,0.00,0.00,VWS V14.01,2013-03-20 03:39:00,
2013-03-19 23:40:00,44.6,3.7,30.05,NW,308,1.0,8.0,18,0.00,,SKC,0.00,0.00,VWS V14.01,2013-03-20 03:40:00,
2013-03-19 23:44:00,44.3,4.7,30.05,WSW,258,3.0,9.0,19,0.00,,SKC,0.00,0.00,VWS V14.01,2013-03-20 03:44:00,
2013-03-19 23:45:00,44.2,4.6,30.05,WSW,243,5.0,9.0,19,0.00,,SKC,0.00,0.00,VWS V14.01,2013-03-20 03:45:00,
2013-03-19 23:49:00,44.1,3.3,30.05,WNW,289,11.0,14.0,18,0.00,,SKC,0.00,0.00,VWS V14.01,2013-03-20 03:49:00,
2013-03-19 23:50:00,44.1,3.3,30.05,WNW,288,5.0,14.0,18,0.00,,SKC,0.00,0.00,VWS V14.01,2013-03-20 03:50:00,
2013-03-19 23:54:00,44.2,2.2,30.05,North,360,4.0,16.0,17,0.00,,SKC,0.00,0.00,VWS V14.01,2013-03-20 03:54:00,
2013-03-19 23:55:00,44.2,2.2,30.05,West,262,5.0,16.0,17,0.00,,SKC,0.00,0.00,VWS V14.01,2013-03-20 03:55:00,